GEFSCGP_850_meantemp_030.txt.gz
Temperature
17 20 19 18 17 17 18 18 18 17 13 12 13 14 14 10 8 8 9 8 7 6 5 3 2 2 2 1 1 0 -0 -1 -1 -1 -2 -2 -3 -4 -5 -6 -7 -8 -9 -9
20 18 16 15 15 16 17 18 18 16 12 12 13 14 15 13 9 9 9 8 8 7 5 3 2 2 1 1 1 0 -1 -2 -2 -2 -2 -3 -4 -5 -6 -7 -8 -9 -9 -10
20 16 14 15 16 17 17 17 17 16 14 12 12 17 14 11 9 8 8 8 8 7 5 3 2 2 1 1 1 -0 -1 -2 -2 -2 -3 -4 -5 -6 -7 -7 -8 -9 -10 -10
17 15 15 16 16 16 18 15 14 14 15 16 14 18 18 14 12 10 8 8 7 6 5 4 2 1 1 1 1 -0 -1 -2 -2 -3 -4 -5 -5 -7 -7 -8 -9 -10 -10 -11
16 15 15 16 15 14 15 13 13 13 14 16 15 17 20 13 16 15 12 9 8 6 5 3 2 2 1 1 0 -1 -2 -2 -3 -3 -4 -5 -6 -7 -8 -9 -9 -10 -10 -11
15 13 14 15 13 13 13 13 13 13 15 18 16 17 19 18 17 16 12 9 8 6 4 2 2 2 2 1 -0 -1 -2 -2 -3 -3 -4 -5 -6 -7 -8 -9 -10 -10 -11 -11
16 15 13 13 15 14 15 18 19 19 19 19 14 15 18 18 15 13 12 10 7 5 3 2 2 2 1 1 -0 -1 -2 -3 -3 -4 -5 -6 -7 -8 -9 -10 -10 -11 -11 -11
19 18 15 14 15 16 15 17 18 18 18 18 15 16 19 15 11 9 8 7 5 4 3 2 2 1 1 0 -1 -1 -2 -3 -3 -4 -5 -6 -7 -8 -9 -10 -11 -11 -11 -11
19 18 13 12 12 14 16 16 14 16 16 15 18 18 18 13 12 10 8 6 5 4 2 2 1 1 1 0 -1 -1 -2 -3 -3 -4 -5 -6 -7 -8 -9 -10 -11 -11 -11 -12
17 17 14 12 12 12 14 15 15 16 16 17 18 18 18 19 18 14 11 8 6 3 2 1 1 1 1 0 -1 -1 -2 -3 -4 -4 -5 -6 -7 -8 -9 -10 -11 -11 -11 -12
14 17 15 14 14 16 13 13 14 15 15 16 17 19 19 19 17 15 14 10 7 4 3 2 2 1 1 -0 -1 -2 -2 -3 -4 -5 -5 -6 -7 -8 -9 -10 -10 -11 -11 -12
13 16 18 16 12 12 14 15 15 16 16 14 15 17 18 16 14 12 12 9 7 4 3 2 2 1 1 -0 -1 -2 -3 -3 -4 -5 -5 -6 -7 -8 -9 -9 -10 -11 -11 -12
11 15 18 17 14 11 12 12 13 14 14 14 14 18 17 13 12 10 9 8 6 4 2 2 2 1 0 -1 -1 -2 -3 -3 -4 -5 -5 -6 -7 -8 -9 -9 -10 -11 -11 -12
10 14 17 19 18 16 13 11 11 13 14 15 14 17 19 18 16 14 10 8 5 3 2 2 2 1 0 -1 -2 -2 -3 -3 -4 -5 -5 -6 -7 -8 -8 -9 -9 -10 -11 -12
10 13 14 14 12 12 13 13 10 12 14 15 17 16 17 18 17 14 10 7 4 2 2 2 2 1 0 -1 -1 -2 -3 -3 -4 -5 -5 -6 -7 -7 -8 -8 -9 -10 -11 -11
9 11 12 13 11 10 10 11 11 11 12 13 13 14 16 15 12 9 8 6 4 3 3 3 2 1 0 -1 -1 -2 -3 -3 -4 -5 -5 -6 -7 -7 -8 -8 -9 -9 -10 -11
9 11 12 15 12 11 14 14 11 10 11 12 13 16 17 13 11 10 9 7 7 6 4 4 3 2 0 -1 -1 -2 -3 -3 -4 -5 -5 -6 -7 -7 -8 -8 -9 -9 -10 -10
9 11 12 13 14 14 19 13 12 11 12 11 12 14 14 13 11 9 10 8 8 7 6 4 3 1 0 -1 -1 -2 -3 -3 -4 -5 -5 -6 -6 -7 -8 -8 -8 -9 -9 -10
8 11 12 11 13 16 17 11 10 11 14 14 12 13 13 10 7 11 13 12 10 8 6 5 3 1 0 -1 -1 -2 -2 -3 -4 -5 -5 -6 -6 -7 -7 -8 -8 -9 -9 -9
6 9 11 9 12 15 18 12 9 12 15 15 12 13 12 6 12 15 12 11 9 7 5 4 2 1 0 -1 -2 -2 -2 -3 -4 -4 -5 -6 -6 -7 -7 -7 -8 -8 -9 -9
7 8 9 9 11 14 15 8 10 15 18 18 15 14 12 9 13 13 11 10 9 7 5 3 2 1 0 -1 -1 -2 -2 -3 -4 -4 -5 -6 -6 -7 -7 -7 -8 -8 -8 -9
10 9 9 10 11 13 11 9 13 18 18 17 17 16 14 14 13 12 11 9 8 7 5 3 2 1 -0 -1 -1 -2 -2 -3 -4 -4 -5 -6 -6 -6 -7 -7 -7 -7 -8 -8
11 12 12 12 14 15 11 13 15 16 17 18 17 16 15 13 13 12 11 9 8 7 5 3 2 1 -0 -1 -1 -2 -2 -3 -4 -4 -5 -5 -6 -6 -6 -6 -6 -7 -7 -8
10 9 10 9 11 12 11 14 16 17 17 18 17 16 15 14 14 12 11 9 8 6 5 3 2 1 0 -0 -1 -2 -2 -3 -3 -4 -5 -5 -5 -6 -6 -6 -6 -6 -6 -8
13 8 9 10 13 12 14 17 19 19 18 18 18 17 16 15 14 13 11 10 8 7 5 3 2 1 1 -0 -1 -2 -2 -3 -3 -4 -5 -5 -5 -5 -5 -5 -5 -6 -6 -7
10 9 11 15 16 14 17 19 19 18 18 18 17 17 16 15 15 13 12 10 8 7 6 4 3 2 1 -0 -1 -2 -2 -3 -3 -4 -4 -5 -5 -5 -5 -5 -5 -5 -6 -6

GEFSCGP_850_meantemp_036.txt.gz
Temperature
22 21 20 19 19 19 20 20 20 19 16 15 15 15 16 14 12 12 12 12 11 11 10 9 8 7 5 4 3 2 2 2 2 2 2 1 1 -0 -1 -2 -3 -4 -5 -6
21 20 19 19 19 19 19 20 20 18 15 15 15 15 17 16 12 12 13 13 13 12 11 10 8 7 5 4 3 2 1 2 2 2 1 1 0 -1 -2 -3 -4 -5 -6 -7
21 18 18 18 19 19 20 20 18 17 18 16 15 16 16 16 16 14 13 13 13 13 12 11 9 7 5 4 3 2 1 2 2 1 1 0 -0 -1 -2 -3 -4 -5 -6 -7
20 18 18 18 19 19 19 17 17 17 16 17 17 16 16 15 14 14 14 13 13 13 13 12 10 8 6 4 3 2 1 2 2 1 1 -0 -1 -1 -2 -3 -4 -5 -6 -7
19 18 17 18 19 17 18 16 16 16 16 16 17 16 18 17 15 14 14 14 14 13 12 11 10 8 6 4 3 2 2 2 1 1 0 -0 -1 -2 -3 -4 -5 -6 -6 -7
18 17 18 17 17 16 16 16 16 15 15 16 18 18 18 17 19 17 16 16 15 14 13 11 10 8 6 4 3 2 2 1 1 1 0 -0 -1 -2 -3 -4 -5 -6 -7 -8
17 17 16 16 16 16 15 16 16 16 15 18 18 17 17 19 19 19 17 16 15 14 12 11 9 7 6 4 3 2 2 1 1 0 -0 -1 -1 -2 -3 -4 -5 -6 -7 -8
20 18 16 16 17 16 18 17 17 17 18 18 17 16 18 18 19 18 17 16 15 13 12 10 9 7 5 4 3 2 2 1 1 0 -0 -1 -2 -3 -3 -4 -5 -6 -7 -8
19 18 15 16 16 15 17 17 17 16 18 17 17 19 20 17 16 16 15 14 14 13 12 10 8 7 5 4 3 2 1 1 1 0 -0 -1 -2 -3 -3 -4 -5 -6 -7 -8
17 18 16 14 14 14 14 15 15 15 16 15 17 19 18 16 16 15 14 15 15 14 12 10 8 6 4 3 2 1 1 1 1 0 -0 -1 -2 -3 -4 -4 -5 -6 -7 -8
17 17 16 14 14 15 14 15 15 16 16 15 15 17 20 18 18 18 16 17 16 14 13 11 8 6 4 2 1 1 1 1 1 0 -1 -1 -2 -3 -4 -5 -6 -6 -7 -8
16 16 16 16 15 14 16 16 16 15 15 15 13 15 19 19 19 18 18 17 16 14 13 11 8 5 3 2 1 1 1 1 0 -0 -1 -1 -2 -3 -4 -5 -6 -6 -7 -7
15 14 16 16 14 13 14 15 16 16 14 14 14 15 19 19 18 18 17 17 15 14 12 10 7 5 3 2 1 1 1 1 0 -0 -1 -2 -2 -3 -4 -5 -5 -6 -7 -7
13 13 15 16 16 15 14 14 14 14 13 13 14 15 18 17 16 17 18 17 15 13 12 9 7 5 3 2 1 1 1 1 0 -0 -1 -2 -2 -3 -4 -5 -5 -6 -6 -7
12 12 14 15 16 16 15 15 13 13 14 14 15 16 17 18 18 19 18 17 15 13 12 10 7 5 3 2 1 1 1 1 0 -0 -1 -2 -2 -3 -4 -4 -5 -5 -6 -7
11 12 14 14 15 15 14 14 14 13 13 14 15 15 17 18 19 18 17 16 15 14 12 10 8 6 4 3 2 1 1 1 1 -0 -1 -2 -2 -3 -4 -4 -5 -5 -6 -6
11 11 12 12 15 13 12 13 13 13 13 13 13 14 16 17 16 17 17 16 15 14 13 11 9 7 5 4 3 2 2 1 1 -0 -1 -2 -2 -3 -4 -4 -4 -5 -5 -6
11 12 11 11 14 12 15 16 16 14 14 13 13 14 14 16 17 17 17 16 16 15 14 12 11 8 6 4 3 2 2 1 1 -0 -1 -2 -2 -3 -3 -4 -4 -5 -5 -6
10 11 12 11 10 12 15 16 14 14 13 14 14 14 15 16 14 16 18 17 17 15 14 13 11 9 6 4 3 2 2 1 1 -0 -1 -2 -2 -3 -3 -4 -4 -4 -5 -6
8 9 9 9 9 10 15 14 14 14 12 15 14 13 15 14 11 14 18 17 16 15 13 12 11 9 6 5 4 3 2 1 1 0 -1 -2 -2 -3 -3 -3 -4 -4 -5 -5
6 7 7 8 8 11 14 12 12 13 14 18 18 17 16 12 14 17 17 16 15 14 13 11 10 9 7 6 4 3 2 2 1 0 -1 -2 -2 -3 -3 -3 -4 -4 -5 -5
8 7 7 8 8 10 12 11 12 14 17 18 19 19 18 18 18 17 16 16 15 14 12 11 9 8 7 6 4 3 3 2 1 -0 -1 -1 -2 -3 -3 -3 -4 -4 -5 -5
11 11 11 11 12 15 14 14 16 16 16 17 17 17 17 16 17 17 16 16 15 14 12 10 9 7 6 5 5 4 3 2 1 -0 -1 -2 -2 -3 -3 -3 -4 -4 -4 -5
13 13 12 12 12 14 15 15 16 17 17 17 17 17 16 16 17 17 16 16 15 14 12 10 8 7 6 5 5 4 3 2 1 0 -1 -2 -2 -3 -3 -3 -4 -4 -4 -5
14 11 10 10 12 14 16 17 17 18 18 17 17 17 17 16 16 16 16 15 15 14 12 10 9 8 7 6 5 4 2 2 1 0 -1 -2 -2 -3 -3 -3 -4 -4 -4 -5
13 12 11 12 14 13 15 17 17 17 17 17 16 16 16 15 15 15 15 14 14 13 12 10 9 8 6 5 5 4 3 2 1 0 -1 -1 -2 -2 -3 -3 -4 -4 -4 -5

GEFSCGP_850_meantemp_042.txt.gz
Temperature
18 15 14 14 13 16 16 16 16 15 13 11 10 11 12 13 11 10 11 12 13 13 14 12 11 10 9 8 8 7 7 6 6 5 4 4 3 2 1 1 0 -0 -1 -2
15 15 16 16 16 16 16 16 16 15 13 12 11 11 12 12 11 11 11 13 14 14 14 13 11 10 9 9 8 8 7 7 6 5 4 4 3 2 2 1 0 -1 -1 -2
17 16 17 17 16 17 16 16 15 15 14 12 12 12 13 13 12 12 13 14 15 15 15 14 13 12 11 10 9 9 8 7 6 5 4 3 3 2 2 1 0 -1 -1 -2
17 16 16 16 16 16 15 15 15 15 13 11 13 11 13 13 12 11 13 14 15 16 16 15 14 13 12 12 11 9 8 7 6 5 4 3 3 2 1 1 0 -1 -1 -2
16 15 15 15 16 16 15 15 14 14 13 12 11 12 13 13 13 13 13 16 18 18 17 16 16 15 14 13 11 10 9 7 6 5 4 3 3 2 1 1 -0 -1 -2 -2
15 15 15 15 15 15 14 14 13 11 10 12 11 11 12 12 13 14 15 18 20 19 18 17 16 15 14 13 11 10 9 7 6 5 4 3 3 2 1 1 -0 -1 -2 -3
15 15 15 15 15 14 14 13 13 13 12 12 12 12 13 14 12 13 16 20 20 20 19 17 16 15 14 13 12 11 9 8 6 5 4 3 3 2 1 0 -0 -1 -2 -2
15 14 14 14 14 13 12 13 13 14 12 12 13 12 14 14 14 16 18 20 20 20 19 18 17 16 15 14 13 11 10 8 7 5 4 3 2 2 1 0 -1 -1 -2 -3
14 14 14 14 14 14 14 12 12 12 12 11 12 11 12 14 14 14 16 18 19 19 19 18 17 16 15 14 13 12 10 9 7 5 4 3 2 2 1 -0 -1 -1 -2 -3
15 14 14 13 13 13 13 12 10 11 12 11 11 11 13 15 14 13 12 15 19 19 19 18 17 17 16 14 13 11 10 8 7 5 4 3 2 2 1 -0 -1 -2 -2 -3
14 13 13 12 11 12 11 12 11 10 10 10 11 13 13 14 14 13 14 17 19 20 19 19 18 17 16 14 13 11 9 8 6 5 3 3 2 1 0 -0 -1 -2 -2 -3
13 11 11 12 12 11 11 11 10 11 11 9 8 13 14 12 12 13 15 17 19 20 19 19 18 17 15 14 13 11 10 8 6 5 3 3 2 1 0 -0 -1 -2 -3 -3
12 11 12 13 13 12 12 11 10 11 10 9 9 14 14 13 14 15 16 18 19 19 19 18 17 17 16 15 13 12 10 8 6 4 3 2 2 1 0 -1 -1 -2 -3 -3
11 10 11 13 13 12 12 12 11 10 10 9 10 14 15 16 15 15 18 18 18 18 18 18 17 17 16 15 13 12 10 8 6 4 3 2 2 1 0 -1 -2 -2 -3 -3
9 9 9 10 11 11 11 12 11 11 12 12 13 14 16 17 15 15 17 17 17 17 18 18 17 17 16 15 14 12 10 8 6 4 3 2 2 1 -0 -1 -2 -2 -3 -3
7 9 9 10 11 10 10 11 12 12 12 12 13 14 16 16 15 15 15 16 16 17 17 17 17 17 16 15 14 13 11 9 7 5 3 2 2 1 -0 -1 -2 -2 -3 -3
7 7 8 8 10 11 10 12 13 11 10 11 12 14 14 13 12 13 15 16 16 17 17 17 17 17 16 15 14 13 12 10 7 5 4 2 1 0 -0 -1 -2 -2 -3 -3
7 7 7 7 10 10 13 13 12 12 12 11 12 13 13 12 14 15 15 16 16 17 17 17 17 16 16 15 14 13 11 9 7 5 4 3 1 1 -0 -1 -2 -2 -3 -3
7 8 8 6 7 9 10 12 12 11 12 12 12 13 13 13 12 15 18 18 17 17 17 16 16 15 15 14 13 12 11 9 7 6 4 3 2 1 -0 -1 -1 -2 -3 -3
6 7 7 6 6 8 11 13 13 13 12 14 12 12 12 11 11 14 18 17 17 16 16 15 15 14 14 14 13 12 11 9 8 7 5 3 2 1 -0 -1 -1 -2 -3 -3
6 6 5 6 6 8 10 12 13 13 14 15 15 14 14 11 13 16 16 16 15 15 15 14 14 14 14 13 12 11 10 10 9 7 5 3 2 1 -0 -1 -2 -2 -3 -3
6 5 4 5 5 8 10 10 11 13 15 15 15 15 14 14 14 15 15 15 14 14 14 13 13 13 13 12 11 11 10 10 8 6 5 3 2 1 -0 -1 -2 -2 -3 -3
7 8 8 7 10 11 12 12 14 14 14 15 14 14 14 13 14 14 14 14 13 13 13 12 12 12 12 12 11 10 10 8 7 5 4 3 2 0 -1 -1 -2 -2 -3 -3
7 7 7 7 8 10 12 13 14 14 14 14 13 13 13 13 13 12 12 12 12 11 11 11 11 11 11 11 10 10 9 7 6 5 4 3 1 0 -1 -1 -2 -2 -2 -3
8 8 7 8 8 10 12 13 13 13 13 12 12 12 12 11 11 11 11 10 10 10 10 10 10 10 10 10 10 9 8 6 5 4 3 2 1 0 -1 -1 -1 -2 -2 -3
8 8 8 9 10 10 11 11 11 11 11 11 11 11 10 10 10 10 9 9 9 9 9 9 9 9 10 9 9 8 7 6 4 3 2 1 0 -0 -1 -1 -2 -2 -3 -3

GEFSCGP_850_meantemp_048.txt.gz
Temperature
16 14 13 13 12 14 15 14 13 12 12 9 8 10 12 13 11 11 12 14 15 17 17 16 15 14 13 12 11 11 10 9 8 7 7 6 6 6 5 4 4 3 3 2
14 13 13 14 13 13 14 13 12 12 11 10 9 9 11 11 11 12 12 13 17 18 18 17 16 15 14 13 13 12 11 10 10 9 8 7 6 5 4 4 3 3 3 2
15 15 15 14 14 14 13 13 13 13 13 11 10 11 11 11 11 11 12 15 17 18 19 19 17 16 15 15 15 14 14 12 11 10 8 6 5 5 4 4 4 3 3 2
14 13 15 15 14 14 12 13 13 13 12 10 11 11 12 12 11 11 13 15 18 20 20 20 19 18 17 17 16 15 15 14 12 10 9 8 7 7 6 5 4 3 2 2
14 15 14 14 13 13 13 13 13 12 12 10 9 10 12 11 12 13 14 18 21 21 21 20 20 19 19 18 17 16 15 14 13 12 10 9 8 7 6 4 3 3 2 2
13 14 14 13 13 13 13 12 10 8 8 10 10 9 11 12 13 14 14 18 20 21 21 21 20 20 19 18 17 17 16 15 14 13 11 10 9 7 6 5 4 3 3 2
13 14 13 13 13 13 13 12 11 12 11 11 10 9 11 13 12 12 13 17 19 19 20 21 21 20 20 19 18 18 17 16 15 14 13 11 10 8 6 5 4 3 3 2
13 13 14 13 13 13 12 12 12 13 12 10 10 9 12 13 13 14 15 16 18 20 20 21 21 20 20 19 19 18 17 17 16 15 14 12 11 8 7 5 4 3 3 2
13 13 13 12 12 12 11 10 11 10 10 9 9 10 11 13 14 14 15 17 19 20 20 20 20 20 20 19 19 18 18 17 16 15 14 13 11 9 8 6 4 3 2 2
13 13 13 12 12 12 12 10 8 10 11 10 10 10 12 14 15 14 13 16 18 19 20 20 20 20 19 19 18 18 17 17 16 15 14 13 12 10 8 6 4 3 2 2
12 12 12 12 11 11 10 10 10 8 8 10 9 11 12 13 13 13 13 16 17 18 19 19 18 19 18 18 18 18 17 17 16 15 14 13 12 10 8 6 5 3 2 1
11 10 10 11 11 10 10 10 9 10 10 7 7 11 13 12 12 12 13 16 17 17 17 17 17 17 17 17 17 17 17 17 16 15 14 13 11 10 8 6 5 3 2 1
10 10 11 12 12 10 10 9 8 9 8 7 7 12 13 12 12 14 15 15 16 16 16 16 16 16 16 16 16 17 16 16 15 15 14 13 11 10 9 7 5 3 2 1
10 9 11 12 12 12 11 10 8 9 9 8 9 12 14 14 14 14 15 15 14 14 14 15 15 15 15 15 16 16 16 15 15 14 13 13 12 11 9 7 5 3 2 1
9 9 8 9 10 9 9 10 9 9 10 10 12 12 14 15 13 13 14 13 13 13 14 14 15 15 15 15 15 15 15 15 14 14 13 13 12 10 8 7 5 3 2 1
7 8 8 8 9 9 8 9 10 10 10 10 11 12 13 13 13 12 12 12 12 13 14 14 14 14 14 14 14 14 14 14 14 14 13 13 11 10 8 6 4 3 1 1
6 6 7 7 8 8 8 9 10 10 9 9 11 12 12 10 10 11 12 12 12 13 13 13 13 14 14 14 13 13 13 13 13 13 13 12 11 10 8 5 3 2 1 0
6 5 6 5 8 7 10 11 10 10 10 10 10 10 10 10 12 12 12 12 12 12 12 12 13 13 13 13 13 13 13 12 12 12 12 11 10 9 7 5 3 2 1 0
5 6 6 5 5 7 8 9 9 9 9 10 10 10 11 11 10 12 13 12 11 11 11 12 12 12 12 12 12 12 12 12 11 11 11 10 9 8 6 4 3 2 1 0
4 5 5 4 5 6 9 10 11 10 9 11 11 10 10 9 7 9 11 11 10 11 11 11 11 11 11 11 11 11 11 10 10 10 9 9 8 7 6 4 3 1 0 -0
5 4 4 4 4 6 8 9 10 9 10 11 11 11 10 8 8 10 10 10 10 10 10 10 10 10 10 10 10 9 9 9 9 8 8 8 7 6 5 3 1 0 -1 -1
6 5 3 3 4 6 8 8 9 10 11 11 10 10 10 9 9 9 9 9 9 9 9 9 9 9 9 9 8 8 8 8 8 8 8 7 6 5 4 2 0 -1 -2 -2
5 7 6 6 8 9 10 10 11 11 10 10 10 10 9 9 8 8 8 8 8 8 8 8 8 8 8 8 7 7 7 7 7 7 7 6 6 4 3 1 -1 -2 -2 -3
6 6 5 5 6 7 10 10 10 10 10 9 9 9 8 8 7 7 7 7 7 7 7 7 7 7 7 7 7 6 6 6 6 6 6 5 4 3 2 -0 -1 -2 -3 -3
7 6 5 6 7 8 8 9 9 9 9 8 8 8 7 7 7 6 6 6 6 6 6 6 5 5 5 5 5 5 5 5 5 5 5 4 3 2 1 -1 -2 -2 -2 -2
6 6 6 7 8 7 8 8 8 8 7 7 7 6 6 6 6 5 5 5 5 5 5 4 4 4 4 4 4 4 4 4 4 4 4 3 2 1 -0 -2 -3 -3 -4 -3

GEFSCGP_850_meantemp_054.txt.gz
Temperature
17 19 20 20 20 19 19 18 19 20 18 15 17 18 20 20 20 19 18 18 18 17 17 16 16 17 16 16 15 14 14 13 12 11 11 10 10 9 8 8 7 7 6 6
19 19 20 18 16 16 17 18 19 20 16 15 17 17 19 20 19 19 18 18 17 17 16 15 14 15 16 16 16 15 14 14 13 12 12 11 10 10 9 9 8 8 7 6
19 19 16 16 17 17 17 18 19 18 18 16 15 19 21 22 20 18 17 16 16 15 15 15 14 15 16 17 17 16 16 15 14 13 12 11 10 9 9 9 9 9 8 6
18 17 15 16 17 17 18 17 16 15 16 18 16 18 21 22 21 21 20 19 17 16 15 15 15 15 17 17 17 16 16 16 15 14 13 12 12 12 13 12 11 10 9 8
19 16 16 17 17 16 17 15 15 15 16 16 17 17 20 22 22 22 21 19 18 16 16 16 17 17 17 17 17 17 16 16 15 15 14 13 13 13 12 11 11 10 10 9
17 15 16 16 15 14 15 15 14 14 16 17 17 17 20 23 22 21 20 19 17 16 16 16 17 18 17 17 17 17 17 16 16 15 15 15 14 14 13 12 12 11 10 10
17 16 15 14 15 15 15 17 19 19 18 19 15 15 19 22 21 19 18 17 17 16 16 16 16 17 17 18 18 17 17 17 17 16 16 16 15 15 14 13 12 11 11 11
17 18 16 15 16 16 16 17 18 18 19 19 15 16 20 21 19 17 17 17 17 17 16 15 16 16 17 17 17 17 17 17 17 17 16 16 16 15 14 13 12 12 12 11
18 18 15 14 14 15 16 16 16 17 17 16 17 17 18 20 20 20 19 18 17 16 15 15 15 15 16 16 17 17 17 17 16 16 16 15 15 15 15 14 12 11 11 10
17 17 16 14 13 13 14 15 15 16 16 17 18 17 19 21 21 20 19 17 16 15 14 14 14 15 15 15 16 16 16 16 15 15 14 14 14 14 13 13 12 12 11 9
16 16 16 15 15 16 14 14 15 16 16 16 17 18 19 19 19 18 17 16 15 14 13 13 14 14 14 15 15 15 15 15 15 14 14 13 13 13 13 13 12 11 10 9
15 16 16 17 14 13 14 16 16 16 17 15 16 18 20 19 18 16 16 15 14 13 12 13 13 13 14 14 14 14 14 14 14 14 13 13 13 13 13 12 12 11 9 8
13 15 16 17 15 13 13 13 14 15 15 16 15 17 19 18 18 18 16 14 13 12 12 12 12 12 13 13 13 13 13 13 13 13 13 13 13 13 13 12 11 10 9 8
13 15 16 16 17 17 15 14 13 13 14 15 16 17 19 19 18 17 15 13 12 12 12 11 11 12 12 12 12 12 13 13 13 13 13 13 12 12 11 11 10 9 8 7
13 14 15 15 15 15 14 14 14 14 14 15 16 17 17 18 16 14 13 12 11 11 11 11 11 11 11 11 11 11 11 12 12 12 12 11 11 11 10 10 9 8 7 6
11 13 12 13 14 14 13 13 14 14 14 15 15 15 17 15 13 13 13 12 11 11 11 10 10 10 10 10 10 10 10 10 10 11 11 10 10 10 10 9 8 8 7 5
12 12 12 13 13 12 12 14 14 14 14 14 14 16 14 13 12 12 12 11 11 10 10 10 9 9 9 9 9 9 9 9 9 9 9 9 9 9 9 8 8 7 6 5
12 11 12 11 11 10 14 14 13 13 14 14 14 13 13 12 11 11 11 10 10 10 9 9 8 8 8 8 8 8 8 8 8 9 9 9 8 8 8 7 7 6 5 4
10 10 11 10 10 12 13 13 12 12 13 13 12 12 11 10 11 12 11 10 9 8 8 8 7 7 7 7 7 7 7 7 7 7 7 7 7 7 7 6 6 5 4 3
7 9 10 9 8 10 14 12 10 11 12 12 11 11 10 10 10 11 9 8 8 8 7 7 6 6 6 6 6 6 6 6 6 6 6 6 6 6 5 5 5 4 3 2
8 8 8 9 9 12 13 10 10 11 13 11 11 10 10 10 9 9 8 8 7 7 6 6 6 6 6 6 5 5 5 5 4 5 5 5 5 4 4 4 4 3 2 1
10 10 9 9 9 10 12 10 12 13 11 10 10 9 9 8 8 7 7 7 6 6 6 6 5 6 6 5 4 4 4 3 4 4 4 4 4 4 4 3 3 2 1 -0
10 11 12 10 12 13 10 11 11 10 10 9 9 8 7 7 7 6 6 6 6 5 5 5 5 5 5 4 4 3 3 3 3 3 3 3 3 3 3 2 2 1 0 -1
10 9 9 10 11 11 11 10 10 9 8 8 7 7 6 6 6 5 5 5 5 5 5 4 4 4 4 4 3 3 2 2 1 1 2 2 2 2 2 2 1 0 -0 -2
9 9 9 9 11 10 10 9 8 8 7 6 6 5 5 5 4 4 4 4 4 4 4 4 3 3 3 3 3 2 2 1 0 1 1 0 0 0 0 0 0 -0 -1 -2
8 8 9 10 10 10 9 8 7 6 6 5 5 4 4 4 4 4 4 4 4 4 4 3 3 2 2 2 2 2 1 0 -0 -0 -0 -0 -0 -0 -0 -1 -1 -0 -1 -2

GEFSCGP_850_meantemp_060.txt.gz
Temperature
20 19 18 20 20 19 19 18 18 19 20 19 18 18 19 20 21 21 21 20 20 20 20 20 20 19 17 16 15 13 13 12 12 11 11 11 11 11 11 10 10 10 10 10
19 19 20 20 20 19 18 18 18 19 20 19 17 17 18 20 21 21 20 20 19 19 19 19 19 18 17 16 15 14 13 12 12 12 13 12 12 12 12 11 10 10 10 10
19 20 20 20 19 19 18 18 18 18 17 18 17 17 20 21 21 20 20 19 18 18 18 18 18 17 17 16 15 14 13 12 12 12 11 10 10 10 10 11 11 11 10 10
20 20 19 19 18 19 18 18 17 17 16 16 18 15 18 20 19 19 19 19 18 18 17 17 17 17 16 16 15 14 13 12 12 11 10 10 11 11 13 12 12 11 10 10
19 19 18 18 18 18 18 17 16 16 15 15 17 16 17 20 19 18 18 19 18 17 17 17 16 16 15 15 14 14 13 12 11 10 10 10 10 11 10 10 9 9 9 9
18 19 18 18 17 17 17 16 16 16 15 15 18 17 18 20 20 19 19 19 18 17 17 16 16 15 15 15 14 13 13 12 11 10 9 9 9 9 8 8 8 8 8 8
20 18 18 17 17 16 16 16 16 16 14 16 18 17 17 20 20 19 19 18 17 16 16 15 15 15 14 14 14 13 13 12 11 10 9 9 9 8 8 7 7 7 6 7
19 18 17 16 17 17 18 17 16 16 17 17 18 16 18 20 20 20 19 18 17 16 15 15 14 14 14 13 13 13 13 12 12 11 10 9 8 8 8 7 7 6 6 6
19 19 17 17 17 17 18 17 17 16 16 15 17 19 20 20 19 19 19 17 16 15 15 14 14 13 13 13 13 13 13 12 12 11 11 10 9 9 8 8 7 6 6 5
18 18 18 15 15 15 16 15 15 15 15 15 17 18 18 19 19 18 17 17 15 15 14 13 13 13 13 12 12 12 12 12 12 12 11 11 10 10 9 8 8 7 7 6
18 17 17 15 15 16 14 15 15 15 15 14 14 16 19 19 19 17 17 16 15 14 13 13 13 12 12 12 12 12 12 12 12 11 11 11 11 10 9 9 9 8 7 6
18 16 16 17 17 17 17 17 16 14 15 15 14 15 20 19 18 17 16 15 14 14 13 13 12 12 12 11 11 11 11 11 11 11 11 10 10 10 10 9 9 8 8 7
17 15 15 16 15 14 15 16 16 15 14 13 13 14 18 18 18 17 15 15 14 13 13 12 12 11 11 11 11 10 10 10 10 10 10 10 9 9 9 9 9 8 8 7
15 14 14 14 15 16 15 16 16 14 13 13 13 15 16 16 16 15 15 14 14 13 13 12 11 11 10 10 10 10 10 9 9 9 9 9 8 8 8 8 8 7 7 7
14 13 14 14 15 15 15 15 15 14 14 13 14 14 15 15 14 14 13 13 13 13 12 11 11 10 10 10 9 9 9 8 8 8 8 8 7 7 7 7 6 6 6 6
13 13 13 13 14 14 14 14 14 14 14 14 14 14 15 14 14 13 12 12 12 12 11 11 10 10 9 9 8 8 8 8 7 7 7 7 6 6 6 6 6 6 6 5
13 12 12 11 13 12 12 14 14 14 15 14 13 14 13 12 12 12 12 12 11 11 10 10 9 9 8 8 8 7 7 7 7 6 6 6 5 5 5 5 5 5 5 4
12 12 11 10 11 9 12 15 15 15 14 14 13 13 12 12 12 12 12 11 10 10 9 9 8 8 8 7 7 7 6 6 6 5 5 5 4 4 4 4 4 3 3 3
12 11 11 10 9 10 13 14 14 13 13 13 13 12 12 12 11 11 11 10 9 9 8 8 8 7 7 7 6 6 6 5 5 5 4 4 3 3 3 3 3 2 2 2
10 10 9 9 9 8 13 12 13 12 11 12 12 11 11 10 7 8 9 9 8 8 7 7 7 6 6 6 5 5 5 4 4 4 3 3 3 2 2 1 1 1 1 1
9 9 8 8 8 10 13 12 12 11 11 12 12 11 10 9 8 8 8 8 7 7 6 6 6 6 6 5 5 4 4 4 3 3 2 2 2 1 1 1 0 0 0 -0
10 9 8 8 8 9 12 12 11 11 12 12 11 10 9 8 8 7 7 7 6 6 6 5 5 5 5 5 4 3 3 3 2 2 1 1 1 0 -0 -0 -0 -0 -1 -1
11 11 11 10 10 13 13 13 12 12 11 10 9 8 8 7 7 6 6 6 5 5 5 4 4 4 4 4 3 3 2 2 1 1 0 0 -0 -1 -1 -1 -1 -1 -1 -1
11 12 10 10 11 12 12 12 11 10 9 8 8 7 7 6 6 5 5 5 4 4 4 4 4 3 3 3 2 2 1 1 0 -0 -0 -1 -1 -1 -1 -1 -2 -2 -2 -2
10 10 9 9 10 11 11 10 9 8 8 7 7 6 6 5 5 4 4 4 4 4 3 3 3 3 2 2 1 1 0 -0 -1 -1 -1 -1 -2 -2 -2 -2 -2 -2 -2 -2
8 8 8 8 9 8 8 8 7 7 6 6 5 5 5 4 4 4 3 3 3 3 3 3 2 2 1 1 0 -0 -1 -1 -1 -2 -2 -2 -2 -2 -2 -2 -2 -2 -2 -3

GEFSCGP_850_meantemp_066.txt.gz
Temperature
16 14 13 14 13 15 16 15 14 14 15 15 14 14 15 16 16 16 17 17 18 18 18 19 19 19 19 18 18 17 16 16 14 13 13 12 12 11 11 11 10 10 9 9
14 13 14 14 15 15 15 15 14 14 15 15 14 13 13 14 15 16 17 17 17 17 18 18 19 19 18 18 17 17 16 16 15 14 14 13 12 11 11 10 10 9 9 8
14 15 16 16 16 16 16 15 14 14 13 13 14 14 14 15 15 16 16 16 16 17 17 17 18 18 17 17 16 16 16 15 15 14 13 12 11 11 10 10 10 10 9 8
13 14 16 16 16 16 14 15 15 15 13 12 13 13 13 15 15 15 15 16 16 16 16 16 16 16 16 16 16 15 15 14 14 13 13 12 12 11 11 11 10 10 9 8
15 16 17 16 16 16 15 15 15 14 13 12 12 12 12 14 15 14 14 15 15 15 15 15 15 15 15 15 15 15 14 13 13 12 12 11 11 11 10 10 9 9 9 8
14 16 17 16 16 16 15 14 13 10 10 12 13 12 13 12 14 14 14 14 15 15 15 15 14 14 14 14 14 14 13 13 12 12 11 11 10 10 10 9 9 9 8 8
15 15 16 16 15 15 14 13 12 13 12 12 13 13 13 14 14 13 13 14 14 14 14 14 14 13 13 13 13 13 13 12 12 12 11 11 10 10 9 9 9 8 8 8
15 15 15 15 15 14 14 13 13 13 12 11 12 13 13 13 14 15 15 14 14 14 14 13 13 13 13 13 13 12 12 12 11 11 11 10 10 10 9 9 9 8 8 8
14 15 15 14 15 15 15 13 12 11 12 11 11 11 13 13 12 12 13 13 14 14 13 13 13 12 12 12 12 12 11 11 11 11 10 10 10 9 9 9 8 8 8 7
15 15 15 14 15 14 14 12 10 11 12 11 11 11 13 14 13 12 12 13 13 13 13 12 12 12 12 11 11 11 11 10 10 10 10 9 9 9 8 8 8 8 8 7
16 14 14 13 13 13 12 13 12 10 10 10 10 11 13 14 13 12 12 13 13 13 12 12 12 11 11 11 11 11 10 10 9 9 9 9 8 8 8 8 7 7 7 7
13 11 12 12 13 12 12 12 11 11 11 9 9 11 13 12 12 13 13 13 13 12 12 11 11 11 11 10 10 10 9 9 9 8 8 8 8 7 7 7 7 6 6 6
13 11 12 12 13 13 13 12 11 11 10 8 9 11 12 11 12 12 12 12 12 11 11 11 11 10 10 10 9 9 9 8 8 8 7 7 7 7 7 6 6 6 5 5
12 11 11 12 12 12 13 13 12 11 9 9 9 11 12 12 11 11 11 11 11 11 10 10 10 9 9 9 8 8 8 7 7 7 7 7 6 6 6 6 5 5 5 4
11 11 10 11 11 11 11 11 11 10 9 10 10 10 11 11 10 11 11 11 10 10 10 9 9 9 8 8 7 7 7 7 6 6 6 6 6 5 5 5 5 4 4 4
10 10 11 11 11 10 10 10 10 10 10 9 10 10 10 10 10 10 10 10 9 9 9 8 8 8 7 7 6 6 6 6 6 5 5 5 5 5 4 4 4 3 3 3
8 9 9 8 9 9 8 9 10 9 9 9 9 10 10 9 10 10 10 9 9 8 8 8 7 7 6 6 6 5 5 5 5 5 5 4 4 4 3 3 3 2 2 2
8 8 7 7 9 8 9 10 10 10 10 10 10 9 9 10 10 10 9 8 8 8 7 7 6 6 6 5 5 5 5 5 4 4 4 4 3 3 2 2 2 1 1 1
8 8 7 6 7 7 8 10 11 11 10 9 9 9 9 9 8 8 8 8 7 7 6 6 6 5 5 5 4 4 4 4 4 3 3 3 2 2 1 1 1 0 -0 -0
6 7 7 6 7 7 9 10 11 11 9 9 8 8 8 7 5 6 8 7 7 6 6 5 5 5 4 4 4 3 3 3 3 2 2 1 1 0 0 -0 -0 -1 -1 -1
6 6 6 5 6 7 8 9 10 9 8 8 8 8 7 6 6 7 6 6 5 5 5 4 4 4 4 3 3 3 3 2 2 1 1 0 0 -0 -1 -1 -1 -1 -2 -2
6 5 4 4 6 7 9 9 8 8 8 8 7 7 7 6 6 6 5 5 4 4 4 4 3 3 3 3 2 2 2 1 1 0 -0 -0 -1 -1 -1 -2 -2 -2 -2 -3
6 6 6 6 7 8 9 8 8 8 7 7 6 6 6 5 5 4 4 4 4 4 3 3 3 3 2 2 2 1 1 0 -0 -1 -1 -1 -2 -2 -2 -3 -3 -3 -3 -3
6 6 5 6 6 8 8 7 7 6 6 6 5 5 5 4 4 4 4 4 3 3 3 2 2 2 2 1 1 0 0 -1 -1 -2 -2 -2 -3 -3 -3 -3 -3 -4 -4 -4
6 6 5 5 6 6 6 6 6 6 6 5 5 5 4 4 4 3 3 3 3 2 2 2 1 1 1 0 0 -0 -1 -2 -2 -3 -3 -3 -3 -4 -4 -4 -4 -4 -4 -4
4 5 5 5 6 5 6 6 6 5 5 5 4 4 4 3 3 3 3 2 2 2 1 1 1 0 -0 -0 -1 -1 -2 -3 -3 -4 -4 -4 -4 -4 -4 -5 -5 -4 -4 -4

GEFSCGP_850_meantemp_072.txt.gz
Temperature
14 13 12 12 12 14 15 14 13 12 13 13 12 11 12 13 13 14 15 15 16 16 16 17 17 18 18 17 17 16 16 15 14 14 13 12 12 12 11 11 10 10 10 9
13 12 13 13 13 13 13 13 12 12 13 13 11 11 12 12 13 14 14 15 16 16 17 17 17 17 17 16 16 16 15 15 14 13 12 12 11 11 11 10 10 10 10 9
13 14 14 13 13 13 13 13 13 13 13 12 12 13 13 13 13 13 14 14 15 16 16 16 16 16 16 16 15 15 15 14 13 13 12 11 11 11 11 10 10 10 9 9
12 12 13 14 13 13 13 13 13 13 13 11 12 12 13 13 13 13 13 14 15 15 15 15 15 15 15 14 14 14 14 13 13 12 12 11 11 11 10 10 9 9 9 8
13 14 14 14 14 13 13 13 13 13 12 11 10 11 11 12 13 12 13 14 14 14 14 14 14 14 14 13 13 13 13 13 12 12 12 11 11 11 10 10 10 9 9 8
13 14 15 14 14 13 13 12 10 9 9 11 12 11 12 11 12 12 12 13 14 14 14 14 13 13 13 13 13 12 12 12 12 11 11 11 11 10 10 10 10 9 9 9
14 14 14 14 14 13 13 12 12 13 12 12 11 10 11 12 11 11 12 13 14 14 13 13 13 13 12 12 12 12 12 11 11 11 10 10 10 10 9 9 9 9 9 8
14 13 14 13 14 13 12 12 13 13 12 11 11 10 11 11 10 11 13 14 14 13 13 13 12 12 12 11 11 11 11 11 10 10 10 9 9 9 9 8 8 8 8 8
12 13 13 13 13 12 12 11 11 10 10 10 10 10 10 12 10 10 11 13 13 13 13 12 12 11 11 11 11 10 10 10 10 9 9 9 8 8 8 8 7 7 7 7
12 14 13 13 13 12 12 10 9 10 11 11 11 10 11 12 12 11 10 12 13 13 12 12 11 11 11 10 10 10 9 9 9 8 8 8 7 7 7 7 7 6 6 6
12 13 13 13 12 12 11 11 10 9 9 10 10 11 11 11 11 10 11 12 13 12 12 11 11 11 10 10 9 9 9 8 8 7 7 7 7 6 6 6 6 6 6 6
11 11 12 12 12 11 11 11 9 11 10 8 9 10 12 10 10 11 12 12 12 12 11 11 10 10 10 9 9 8 8 7 7 6 6 6 6 6 6 6 6 6 5 5
10 11 12 13 12 11 11 10 9 9 8 6 7 11 10 10 10 11 11 11 11 11 10 10 10 10 9 9 8 7 7 6 6 6 6 5 5 5 5 5 5 5 5 5
11 11 12 13 12 11 11 10 9 8 8 7 7 10 11 10 9 9 10 10 10 10 10 10 9 9 8 8 7 6 6 6 5 5 5 5 5 5 5 5 5 4 4 4
11 11 11 11 11 11 11 11 9 8 8 9 9 9 10 9 9 9 9 9 9 9 9 9 8 8 7 7 6 6 5 5 5 4 4 4 4 4 4 4 4 4 3 3
9 10 10 10 10 9 9 9 9 8 8 8 8 8 8 8 8 8 9 9 9 8 8 8 7 7 6 6 5 5 4 4 4 4 4 4 4 3 3 3 3 3 3 2
8 8 9 9 9 9 8 9 9 8 7 7 8 8 8 7 7 8 8 8 8 8 7 7 6 6 5 5 4 4 4 3 3 3 3 3 3 3 3 2 2 2 1 1
7 8 7 7 9 8 10 10 9 8 8 7 7 7 7 8 8 9 8 8 7 7 6 6 5 5 4 4 3 3 3 3 3 3 3 2 2 2 2 1 1 1 0 -0
7 7 6 6 7 7 8 8 7 7 7 7 6 6 7 7 7 7 7 7 6 6 5 5 4 4 4 3 3 3 3 3 2 2 2 2 1 1 1 0 0 -0 -1 -1
6 6 6 5 7 7 9 9 9 8 7 7 7 6 7 6 5 5 7 6 5 5 4 4 4 3 3 3 3 2 2 2 2 1 1 1 0 -0 -0 -1 -1 -1 -2 -2
6 6 6 5 6 7 8 8 8 8 8 7 7 7 7 5 5 6 5 5 4 4 4 3 3 3 3 2 2 2 2 1 1 1 0 0 -0 -1 -1 -1 -2 -2 -3 -3
6 5 5 5 6 7 8 7 7 7 7 7 7 7 6 6 6 5 4 4 4 3 3 3 3 3 3 2 1 1 1 1 0 0 -0 -0 -1 -1 -2 -2 -2 -3 -4 -4
6 7 6 6 7 7 7 7 8 8 7 7 7 6 6 5 5 4 4 3 3 3 3 2 2 2 2 2 1 1 0 -0 -0 -0 -0 -1 -1 -2 -2 -3 -3 -4 -4 -5
5 5 4 4 5 6 6 7 7 7 7 6 6 5 5 4 4 3 3 3 3 3 2 2 2 1 1 1 1 0 -0 -1 -1 -1 -1 -2 -2 -2 -3 -4 -4 -5 -6 -6
6 4 4 4 4 5 5 6 6 6 6 5 5 4 4 3 3 3 3 3 2 2 2 1 1 1 1 0 0 0 -1 -1 -2 -2 -2 -2 -3 -3 -4 -4 -5 -6 -6 -7
4 4 4 5 5 4 5 6 6 5 5 4 4 3 3 3 3 2 2 2 2 2 1 1 1 0 0 0 -0 -0 -1 -2 -2 -3 -3 -3 -4 -4 -5 -6 -6 -6 -7 -6

GEFSCGP_850_meantemp_078.txt.gz
Temperature
16 18 19 19 19 19 18 18 19 19 18 16 18 18 18 17 16 16 16 15 14 13 13 15 15 16 16 16 16 16 15 15 14 13 12 12 11 11 11 10 10 10 9 9
17 18 19 18 16 16 17 17 18 18 16 16 17 18 18 16 16 16 15 15 14 13 13 14 15 15 15 15 15 15 14 14 13 13 12 12 11 11 11 10 10 10 10 9
18 18 16 16 16 16 17 17 18 18 17 16 16 18 17 16 15 14 14 14 13 13 13 13 14 14 14 14 14 14 14 13 13 12 12 12 11 11 11 10 10 10 10 9
18 17 15 16 16 17 17 17 17 16 17 19 17 19 18 17 16 16 14 14 13 12 12 13 14 14 14 14 13 13 13 13 12 12 12 11 11 11 10 10 10 10 10 9
17 15 15 16 17 16 17 15 15 16 17 17 17 18 20 17 17 17 16 14 13 12 12 12 13 13 13 13 13 12 12 12 12 11 11 11 10 10 10 10 9 9 9 9
17 16 16 17 15 15 14 15 14 15 16 17 18 18 19 18 18 18 16 14 13 12 11 12 12 12 12 12 12 12 12 11 11 11 11 10 10 9 9 9 8 8 8 8
16 16 15 15 15 14 15 17 18 18 18 18 16 16 19 18 18 18 17 15 13 12 11 11 12 12 12 12 11 11 11 11 11 10 10 9 9 8 8 8 8 7 7 7
16 17 16 15 17 17 16 17 18 18 19 18 15 17 19 16 15 15 15 15 13 12 11 11 11 11 11 11 11 11 11 10 10 10 9 9 8 8 7 7 7 7 6 6
17 17 14 14 15 17 16 16 17 18 16 17 18 18 18 15 14 14 14 14 13 12 11 11 11 11 11 11 10 10 10 10 9 9 8 8 7 7 6 6 6 6 6 6
18 17 15 13 14 13 15 16 16 17 17 17 18 18 19 17 16 15 14 13 13 12 11 10 10 10 10 10 10 10 9 9 8 8 7 7 6 6 6 6 5 5 5 5
17 17 14 14 15 16 14 15 16 17 17 17 18 19 18 17 17 16 15 14 13 12 11 10 10 10 10 10 9 9 9 8 8 7 6 6 6 5 5 5 5 5 5 4
16 17 16 15 14 14 16 16 16 17 16 16 17 18 16 16 15 15 14 13 12 11 10 10 9 9 9 9 9 8 8 7 7 6 6 6 5 5 5 4 4 4 4 4
15 16 16 15 14 13 14 14 15 16 16 16 16 18 15 14 14 13 13 11 10 10 9 9 9 9 8 8 8 8 7 7 6 6 5 5 5 4 4 4 4 4 3 3
15 16 17 18 18 16 14 13 13 15 16 16 16 18 16 15 14 13 12 11 10 9 9 8 8 8 8 8 7 7 6 6 5 5 5 4 4 4 4 3 3 3 3 3
14 16 16 16 14 15 15 15 13 14 16 16 17 17 17 16 15 13 11 10 9 8 8 8 8 8 7 7 7 6 5 5 5 4 4 4 4 3 3 3 3 3 3 2
14 15 14 14 12 13 13 14 14 14 15 15 16 16 16 14 12 11 10 9 8 8 7 8 7 7 7 6 6 5 5 4 4 4 4 3 3 3 3 2 2 2 2 1
13 14 14 15 12 12 13 15 14 14 14 14 15 16 13 11 11 10 9 8 8 7 7 7 7 6 6 5 5 4 4 4 4 4 3 3 2 2 2 2 1 1 0 0
13 14 14 13 12 12 16 13 13 14 14 13 13 12 11 11 9 8 8 8 7 7 7 6 6 5 5 5 4 4 4 3 3 3 3 2 2 1 1 1 0 -0 -1 -1
12 13 13 12 13 14 14 12 11 12 13 12 11 11 9 8 8 8 7 7 7 6 6 6 5 5 4 4 4 3 3 3 2 2 2 1 1 0 0 -0 -1 -1 -1 -2
9 11 13 11 11 12 15 11 10 12 12 11 10 10 8 8 10 10 6 6 6 6 5 5 5 4 4 3 3 3 2 2 2 1 1 1 0 -0 -1 -1 -1 -2 -2 -3
9 10 11 11 11 13 13 9 10 12 13 9 9 8 8 9 9 7 6 6 5 5 5 4 4 4 3 3 3 2 2 1 1 1 0 0 -0 -1 -1 -1 -2 -2 -3 -3
10 10 11 11 11 12 10 9 11 12 8 8 8 8 7 7 7 6 6 5 5 4 4 4 4 3 3 3 2 2 1 1 1 0 -0 -0 -1 -1 -2 -2 -2 -3 -4 -4
11 12 12 11 12 10 8 9 9 8 8 7 7 7 7 6 6 5 5 4 4 4 3 3 3 3 3 2 1 1 1 0 0 -0 -0 -1 -1 -2 -2 -3 -3 -4 -5 -5
9 8 9 9 9 8 7 7 8 8 7 8 7 7 6 6 5 4 4 4 4 3 3 3 2 2 2 2 1 1 1 0 -0 -1 -1 -2 -2 -2 -3 -4 -4 -5 -6 -6
10 8 8 9 8 7 6 6 7 7 7 7 6 6 5 5 4 4 4 3 3 3 3 2 2 2 1 1 1 1 0 -0 -1 -1 -2 -2 -3 -3 -4 -4 -5 -6 -6 -7
7 8 9 10 9 8 7 6 6 6 6 6 5 5 4 4 4 3 3 3 3 2 2 2 1 1 1 1 1 0 -0 -1 -2 -2 -2 -3 -4 -4 -5 -5 -6 -6 -6 -6

GEFSCGP_850_meantemp_084.txt.gz
Temperature
18 18 17 19 19 20 19 19 18 19 20 19 18 18 19 20 20 19 19 17 16 14 14 13 14 14 15 15 14 14 14 14 13 12 12 11 11 10 10 10 9 9 9 8
18 17 19 20 20 19 18 18 18 19 20 19 18 18 19 19 19 19 18 17 15 14 13 13 13 14 14 14 14 14 14 13 13 12 12 11 11 10 10 9 9 9 9 9
18 19 19 19 19 18 18 17 18 18 19 18 17 16 18 18 18 18 18 17 15 14 13 13 13 13 14 14 14 14 13 13 13 12 12 11 10 10 9 9 9 9 9 9
18 19 19 18 18 18 17 19 18 18 17 16 18 16 18 16 16 16 17 17 15 14 13 13 13 13 13 13 13 13 13 13 12 12 12 11 10 10 9 9 9 8 8 8
18 19 18 17 18 18 18 17 18 17 16 16 17 16 17 16 15 15 16 16 15 14 13 12 13 13 13 13 13 13 13 12 12 12 11 11 10 10 9 9 8 8 8 7
18 19 18 18 18 18 18 17 17 16 15 14 17 16 17 16 16 15 16 16 15 14 13 12 12 13 13 13 12 12 12 12 12 11 11 10 10 9 9 8 8 8 7 7
17 18 18 18 16 16 16 16 15 15 14 14 18 18 18 19 18 17 16 16 15 14 13 12 12 12 12 12 12 12 12 11 11 11 10 10 9 9 8 8 7 7 7 6
16 16 17 17 16 15 15 16 15 16 16 17 17 17 18 18 18 18 17 16 15 14 13 12 12 12 12 12 11 11 11 11 11 10 10 9 9 8 8 7 7 7 6 6
17 17 18 17 17 17 16 15 17 16 16 16 17 18 16 17 17 17 17 16 15 14 13 12 12 11 11 11 11 11 11 10 10 10 9 9 8 8 7 7 7 6 6 6
17 17 16 15 16 16 16 17 16 15 15 15 18 18 17 15 15 16 16 16 15 14 13 12 12 11 11 11 11 10 10 10 9 9 9 8 8 7 7 6 6 6 5 5
17 16 15 14 14 15 15 15 16 16 16 15 16 17 18 16 16 15 15 16 16 15 14 13 12 11 10 10 10 10 9 9 9 8 8 7 7 7 6 6 5 5 5 5
17 16 15 15 16 16 16 16 16 15 16 16 15 16 17 17 16 16 16 17 16 15 14 13 11 11 10 9 9 9 9 8 8 8 7 7 6 6 6 5 5 5 4 4
16 16 15 15 14 14 15 16 16 16 16 15 15 16 16 16 16 17 16 16 15 14 13 12 11 10 9 9 9 8 8 8 7 7 7 6 6 5 5 5 4 4 4 4
16 15 15 16 16 14 14 15 16 15 14 15 15 17 15 16 15 15 15 15 14 13 12 11 10 10 9 9 8 8 7 7 7 6 6 6 5 5 5 4 4 4 4 3
15 15 16 16 17 17 16 16 15 15 15 15 16 17 17 16 15 15 15 14 13 12 11 10 10 9 8 8 7 7 7 7 6 6 6 5 5 5 4 4 4 3 3 3
14 14 15 15 16 16 15 16 16 15 15 15 15 16 17 17 16 15 14 13 12 11 10 10 9 8 8 7 7 7 6 6 6 5 5 5 4 4 4 3 3 3 2 2
13 14 14 14 15 14 13 14 15 15 15 15 15 15 16 15 14 14 13 13 12 10 9 9 8 8 7 7 7 6 6 5 5 5 5 4 4 3 3 3 2 2 2 1
14 13 13 13 13 11 14 16 16 16 16 15 15 15 14 14 13 13 13 12 11 10 9 8 7 7 7 6 6 6 5 5 5 4 4 3 3 3 2 2 2 1 1 0
13 13 13 11 11 12 15 15 14 14 14 15 15 15 13 12 11 11 11 11 10 9 8 7 7 7 6 6 5 5 5 4 4 4 3 3 2 2 2 1 1 1 0 -0
11 12 12 11 11 11 14 13 14 14 12 14 14 13 10 10 8 8 10 9 9 8 7 7 6 6 6 5 5 4 4 4 3 3 3 2 2 2 1 1 0 -0 -0 -1
9 10 10 10 10 11 13 12 13 12 12 12 12 12 10 9 9 9 9 8 8 7 7 6 6 5 5 4 4 4 4 3 3 2 2 2 2 1 1 0 -0 -1 -1 -2
10 10 10 10 10 10 10 11 11 11 11 11 11 11 10 9 9 8 7 7 6 6 6 5 5 5 4 4 4 3 3 3 2 2 2 1 1 0 -0 -1 -1 -1 -2 -2
12 12 12 12 11 12 12 11 11 11 11 11 10 10 9 8 7 7 6 6 6 5 5 5 4 4 4 4 3 3 2 2 2 1 1 1 0 -0 -1 -1 -2 -2 -2 -3
12 12 12 12 11 11 11 11 11 10 10 10 10 9 9 8 7 6 6 5 5 5 4 4 4 4 3 3 3 2 2 1 1 0 0 -0 -1 -1 -1 -2 -2 -3 -3 -4
12 10 10 11 11 10 10 10 10 9 9 9 8 8 8 7 6 6 5 5 4 4 4 3 3 3 3 2 2 2 1 1 0 -0 -1 -1 -1 -2 -2 -2 -3 -3 -4 -4
10 10 10 10 10 9 9 10 9 8 8 8 7 7 6 6 6 5 5 4 4 3 3 3 3 2 2 2 1 1 1 -0 -1 -1 -1 -1 -2 -2 -3 -3 -3 -4 -4 -5

GEFSCGP_850_meantemp_090.txt.gz
Temperature
16 13 13 14 14 15 15 15 15 15 16 16 14 15 15 16 15 15 15 15 15 15 15 15 15 15 15 15 14 14 14 13 12 12 12 11 11 10 10 10 9 9 9 9
13 13 14 15 15 15 15 15 15 15 16 15 14 14 15 14 14 15 15 14 15 14 14 14 15 14 14 14 14 14 13 13 12 12 12 11 11 10 10 10 9 9 9 9
13 14 15 15 15 15 15 15 15 15 15 15 15 14 14 14 15 15 15 15 15 15 14 14 14 14 14 14 14 14 13 13 12 12 12 11 11 10 10 10 9 9 9 8
13 14 15 15 15 15 14 15 15 15 14 13 14 12 13 14 14 13 13 13 13 14 14 14 14 14 14 14 13 13 13 13 12 12 12 11 11 11 10 10 9 9 8 8
13 14 14 15 15 15 15 16 16 15 14 13 12 12 13 13 13 12 11 12 13 13 14 14 14 13 13 13 13 13 13 12 12 12 11 11 11 10 10 9 9 8 8 8
13 15 15 15 16 15 15 15 14 12 11 11 12 11 12 13 13 13 11 12 13 13 13 13 13 13 13 12 12 12 12 12 12 12 11 11 11 10 9 9 9 8 8 7
14 15 15 15 15 15 14 13 12 12 10 11 12 11 12 14 14 13 12 12 12 13 13 13 13 12 12 12 12 12 12 12 11 11 11 11 10 10 9 9 8 8 7 7
12 13 14 14 14 13 13 13 12 12 11 11 13 12 13 14 14 15 14 13 12 12 13 13 13 13 12 12 12 12 12 11 11 11 10 10 10 9 9 8 8 7 7 6
12 12 14 14 14 14 12 12 13 12 12 12 12 12 14 15 14 13 13 12 12 12 13 13 13 13 12 12 12 12 11 11 11 10 10 10 9 9 8 8 7 7 6 6
13 12 14 14 14 14 13 12 11 11 11 11 12 13 14 15 14 12 11 11 11 12 13 13 13 13 12 12 12 11 11 11 10 10 10 9 9 8 8 7 7 6 6 5
13 12 12 13 13 12 13 13 12 11 10 10 11 13 14 14 13 12 11 12 12 12 13 13 13 13 12 12 11 11 10 10 10 9 9 9 8 8 7 7 6 6 5 5
12 11 11 11 12 13 13 12 12 11 11 10 10 12 14 13 13 13 13 13 13 13 13 13 13 12 12 11 11 10 10 10 9 9 8 8 7 7 7 6 6 5 5 5
12 11 11 11 12 12 12 12 12 12 11 10 10 13 14 13 14 14 14 14 14 13 13 13 13 12 12 11 10 10 9 9 9 8 8 7 7 7 6 6 5 5 4 4
13 11 11 12 12 12 11 12 12 12 11 10 11 12 14 14 14 13 14 14 14 14 13 13 12 12 11 11 10 9 9 9 8 8 7 7 6 6 5 5 5 4 4 4
12 11 11 12 13 12 12 13 12 12 12 12 12 13 14 14 13 14 15 14 14 13 13 13 12 11 11 10 9 9 9 8 8 7 7 6 6 5 5 5 4 4 3 3
11 11 11 12 13 12 12 12 12 12 12 12 12 13 13 14 14 14 14 13 13 13 13 12 12 11 10 10 9 9 8 8 7 7 6 6 5 5 4 4 3 3 3 2
10 11 11 10 12 12 11 12 12 12 12 12 13 14 14 13 11 13 14 13 13 13 13 12 11 10 10 9 9 8 8 7 6 6 6 5 5 4 4 3 3 2 2 2
9 10 9 9 11 10 12 12 13 13 13 12 12 13 12 12 13 13 14 14 13 13 12 11 10 10 9 9 8 8 7 6 6 5 5 5 4 4 3 3 2 2 1 1
9 10 9 8 9 9 11 12 12 12 12 12 12 12 11 11 11 11 12 13 13 12 12 11 10 9 9 8 7 7 6 6 5 5 4 4 3 3 2 2 2 1 1 1
8 9 8 7 9 9 11 13 13 13 12 12 11 10 9 10 9 10 12 12 12 11 10 9 9 8 8 7 7 6 6 5 5 4 4 3 3 2 2 1 1 1 0 -0
8 8 7 7 8 8 10 12 12 12 12 13 12 11 10 9 10 12 11 11 10 10 9 9 8 7 7 6 6 5 5 4 4 3 3 3 2 2 1 1 1 0 -0 -1
9 8 7 7 7 8 10 10 11 12 12 12 12 12 11 11 11 11 10 10 9 8 8 7 7 6 6 5 5 4 4 3 3 3 2 2 2 1 1 0 -0 -0 -1 -1
8 9 9 9 10 10 11 12 13 13 13 13 13 13 12 11 10 9 9 8 8 7 7 6 6 6 5 4 4 4 3 3 2 2 2 1 1 1 0 -0 -1 -1 -1 -2
7 8 8 8 8 9 11 12 12 13 13 13 12 12 12 11 10 9 8 7 7 6 6 6 5 5 4 4 3 3 2 2 2 2 1 1 0 0 -0 -1 -1 -2 -2 -3
8 7 7 8 8 8 9 11 12 12 12 12 11 11 11 10 9 8 7 6 6 5 5 5 4 4 3 3 3 2 2 1 1 1 0 0 -0 -1 -1 -1 -2 -2 -3 -4
6 7 8 9 8 8 10 12 11 11 11 11 10 10 9 9 8 7 6 6 5 5 4 4 3 3 3 3 2 2 1 1 0 0 -0 -0 -1 -1 -2 -2 -2 -3 -3 -4

GEFSCGP_850_meantemp_096.txt.gz
Temperature
14 12 12 12 13 14 14 13 13 13 14 14 13 13 14 15 14 14 15 16 17 18 17 17 16 16 16 16 16 15 15 14 13 12 12 11 11 10 10 10 10 9 9 9
12 12 12 13 13 13 13 13 13 13 13 13 12 12 13 12 13 15 15 16 17 17 16 16 16 16 16 16 15 15 14 14 13 12 12 11 11 10 10 10 10 9 9 9
12 12 13 13 13 13 12 12 13 13 13 13 12 12 12 13 14 14 15 16 16 16 16 16 16 16 15 15 15 14 14 13 13 12 12 11 11 10 10 10 9 9 9 9
11 12 13 13 12 12 12 12 13 13 12 11 12 11 12 13 12 12 13 14 15 16 16 16 15 15 15 15 14 14 13 13 12 12 12 11 11 11 10 10 10 9 9 9
11 11 12 12 13 12 13 13 13 13 12 11 11 11 11 11 12 13 13 14 15 15 15 15 15 15 14 14 14 13 13 13 12 12 12 11 11 11 10 10 10 9 9 8
12 12 12 13 13 13 13 12 11 9 10 10 10 10 10 11 13 13 13 14 14 14 14 14 14 14 13 13 13 13 13 12 12 12 12 11 11 11 10 10 9 9 8 8
12 12 13 13 13 13 13 12 11 11 10 10 10 10 10 12 12 12 13 14 14 13 13 13 13 13 13 13 13 13 12 12 12 12 11 11 11 11 10 10 9 9 8 8
10 11 12 12 12 11 11 12 11 11 10 9 10 9 11 12 12 13 13 14 14 13 13 13 13 13 13 13 13 13 12 12 12 12 11 11 11 10 10 9 9 8 8 7
11 11 12 12 12 12 11 11 12 11 10 10 9 9 10 13 14 13 13 12 12 13 13 13 13 13 13 13 13 13 12 12 12 11 11 11 10 10 10 9 9 8 7 7
11 11 12 12 12 12 11 10 10 10 10 10 10 10 11 13 14 13 11 11 12 12 12 12 13 13 13 13 12 12 12 12 11 11 11 10 10 10 9 9 8 8 7 7
11 11 11 11 11 11 10 10 10 9 9 9 9 10 11 12 12 11 11 12 12 13 13 13 13 13 12 12 12 12 11 11 11 11 10 10 9 9 8 8 7 7 7 6
10 10 10 10 11 11 11 10 10 10 9 8 8 10 12 12 11 11 12 14 14 14 13 13 13 13 12 12 12 12 11 11 11 10 10 9 9 8 8 7 7 6 6 6
11 10 10 10 10 10 10 10 10 10 9 7 8 10 12 12 12 14 14 15 15 14 14 13 13 13 12 12 12 11 11 11 10 10 9 9 8 8 7 7 6 6 6 5
11 9 10 11 10 10 9 10 10 10 9 8 9 10 12 13 13 13 15 15 15 15 14 13 13 13 13 12 12 11 11 10 10 9 9 8 8 7 7 6 6 5 5 5
10 9 9 10 11 10 10 10 10 10 10 10 10 10 12 13 13 14 15 15 15 14 14 14 14 13 13 12 12 11 10 10 9 9 8 8 7 7 6 6 5 5 5 4
9 10 9 10 10 10 10 10 10 10 10 10 10 11 12 13 14 13 14 14 14 15 15 15 14 13 13 12 12 11 10 9 9 8 8 7 7 6 6 5 5 5 4 4
8 9 9 9 10 10 9 10 10 9 9 10 11 12 13 12 11 12 14 14 15 15 15 15 14 14 13 12 11 11 10 9 8 8 7 7 6 6 5 5 5 4 4 3
9 9 8 8 9 9 11 11 11 10 10 10 10 11 11 11 13 14 14 14 15 15 15 15 14 13 12 11 10 10 9 8 8 7 7 6 6 5 5 4 4 4 3 3
9 9 7 7 8 8 9 10 10 10 10 10 10 10 11 11 11 12 14 14 14 14 14 14 13 12 11 10 9 9 8 7 7 7 6 6 5 5 4 4 4 3 3 2
7 8 7 6 8 8 10 11 10 10 10 11 10 10 9 9 9 11 14 14 14 13 13 13 12 11 10 9 8 8 7 7 7 6 6 5 5 4 4 3 3 3 2 2
7 7 7 7 8 8 9 10 10 10 11 12 12 11 10 8 11 12 13 13 13 12 12 11 11 10 9 8 8 7 6 6 6 5 5 4 4 4 3 3 2 2 2 1
8 7 6 6 7 8 9 9 10 11 13 13 13 13 12 12 12 12 12 12 12 11 10 10 9 8 8 7 7 6 6 5 5 5 4 4 3 3 3 2 2 1 1 0
8 9 8 8 10 10 10 11 13 13 13 13 14 14 13 12 12 12 11 11 10 10 9 8 8 7 7 6 6 5 5 5 4 4 4 3 3 2 2 2 1 1 0 -0
6 6 6 7 7 8 10 11 13 13 13 14 14 13 13 12 12 11 11 10 9 8 8 7 7 7 6 5 5 4 4 4 4 3 3 3 2 2 1 1 0 -0 -0 -1
7 5 6 7 7 8 10 12 13 13 13 13 13 13 12 12 11 11 10 9 8 8 7 6 6 6 5 4 4 4 3 3 3 3 2 2 1 1 1 0 -0 -1 -1 -2
5 6 7 8 8 8 10 14 13 13 13 12 12 12 11 11 11 10 9 8 7 7 6 6 5 5 4 4 3 3 3 2 2 2 2 1 1 0 0 -0 -1 -1 -2 -2

GEFSCGP_850_meantemp_102.txt.gz
Temperature
16 17 17 18 18 19 18 18 18 19 18 17 18 19 20 20 19 19 19 20 19 19 18 18 18 18 18 17 17 16 16 15 14 13 12 11 11 11 10 10 10 10 9 9
16 17 18 19 18 17 17 17 18 18 18 17 18 18 20 20 19 19 19 19 19 18 17 17 18 18 17 17 17 16 16 15 14 13 13 12 11 11 10 10 10 10 9 9
17 18 18 17 16 16 17 17 18 18 18 17 16 18 19 20 19 18 18 18 18 17 16 16 17 17 17 17 17 16 16 15 14 13 12 12 11 10 10 10 10 10 9 9
17 17 16 16 17 17 17 17 17 17 17 18 17 17 19 20 19 19 19 18 18 16 15 15 15 16 16 16 16 16 15 14 14 13 12 12 11 11 10 10 10 10 9 9
16 17 16 16 17 17 17 17 16 16 17 17 17 16 18 19 19 20 20 18 17 16 15 14 15 15 15 15 15 15 15 14 13 13 12 12 11 11 11 10 10 9 9 9
17 16 17 17 17 17 16 15 15 15 16 16 17 17 18 20 20 20 20 19 17 15 14 14 14 14 14 14 14 14 14 14 13 12 12 11 11 11 11 10 10 10 9 9
15 14 15 16 15 15 16 16 15 15 15 16 16 16 18 20 20 19 19 18 16 15 14 13 13 13 13 14 14 14 13 13 13 12 11 11 11 11 11 10 10 10 10 9
15 15 15 15 16 16 16 17 16 15 16 17 15 16 19 20 18 17 17 16 15 14 13 13 13 13 13 13 13 13 13 12 12 12 11 11 11 11 10 10 10 10 10 9
16 16 16 16 16 17 16 16 18 17 16 15 16 17 18 19 19 18 17 16 15 14 13 12 12 12 12 13 13 13 12 12 12 11 11 11 11 11 10 10 10 9 9 9
17 16 14 14 14 15 17 17 15 15 14 15 16 17 17 19 19 19 18 17 15 14 13 12 12 12 12 12 12 12 12 12 11 11 11 11 11 11 10 10 10 9 9 9
17 16 13 13 14 15 15 15 16 16 16 15 16 17 18 19 19 18 18 17 15 14 13 13 12 11 11 11 11 11 11 11 11 11 11 11 11 10 10 10 10 9 9 8
16 16 14 14 15 16 16 16 16 15 15 15 16 17 19 18 18 17 17 16 15 14 14 13 12 12 11 11 11 11 11 11 11 11 11 11 11 10 10 10 9 9 8 8
15 15 13 13 13 13 14 16 16 16 16 15 15 17 18 17 17 16 16 16 15 15 14 13 13 12 12 12 12 11 11 11 11 11 11 10 10 10 10 9 9 8 8 7
16 15 15 14 15 15 14 14 15 15 15 15 16 17 18 18 18 18 17 17 16 15 15 14 13 13 13 12 12 12 11 11 11 11 10 10 10 10 9 9 8 8 7 7
14 14 15 16 16 15 15 15 15 15 16 16 17 17 17 18 18 18 18 17 16 15 14 15 14 13 13 13 12 12 11 11 11 10 10 10 10 9 9 8 8 7 7 6
13 14 14 14 14 14 14 15 15 15 15 16 16 16 18 18 18 17 17 16 15 15 14 15 14 14 14 13 13 12 11 11 10 10 10 9 9 9 8 8 7 6 6 6
12 13 13 13 13 12 13 14 15 15 15 15 15 16 18 17 17 16 16 15 15 14 15 15 15 15 14 14 13 12 12 11 10 10 9 9 8 8 8 7 6 6 5 5
12 13 13 12 12 11 15 16 16 15 15 15 16 17 17 17 16 15 14 14 14 14 15 15 15 15 14 13 13 12 11 10 10 9 9 8 8 7 7 6 6 5 5 5
13 12 12 11 12 13 14 13 13 14 15 16 15 16 16 14 13 14 14 14 14 14 14 14 14 14 14 13 12 11 10 9 9 8 8 8 7 7 6 6 5 5 4 4
11 12 12 11 11 12 15 15 13 14 14 16 15 15 15 13 14 16 14 14 14 14 14 14 14 14 13 12 11 10 9 9 8 8 7 7 7 6 6 5 5 4 4 3
10 11 11 11 12 14 15 12 13 14 16 16 14 14 14 13 15 14 13 13 13 13 13 13 13 13 12 11 10 9 9 8 7 7 6 6 6 6 5 5 4 4 3 3
11 11 11 12 12 13 12 11 14 16 15 14 13 13 12 12 12 13 13 13 13 13 13 12 12 11 11 10 9 8 8 7 7 6 6 5 5 5 4 4 3 3 2 2
13 13 13 13 14 14 12 13 14 14 14 14 14 14 14 13 12 12 12 12 12 12 12 11 11 10 10 9 8 8 7 6 6 5 5 5 4 4 4 3 3 2 2 2
11 11 12 12 12 12 11 12 13 14 14 15 15 15 14 14 13 12 12 11 11 11 11 10 10 9 8 8 7 7 6 6 5 5 4 4 4 3 3 3 2 2 1 1
11 10 11 12 12 11 10 11 13 13 13 14 14 14 14 13 13 12 12 11 11 10 10 9 9 8 8 7 6 6 5 5 4 4 4 3 3 3 2 2 2 1 1 0
10 11 12 13 13 13 14 14 14 13 13 14 13 13 13 13 12 12 11 11 10 10 9 8 7 7 6 6 5 5 4 4 4 3 3 3 2 2 1 1 1 1 0 -0

GEFSCGP_850_meantemp_108.txt.gz
Temperature
16 15 15 16 17 18 18 19 19 20 20 19 18 18 19 20 21 21 21 21 22 22 22 21 21 20 19 18 18 17 16 15 14 13 13 12 12 11 11 11 11 10 10 10
15 15 17 18 18 18 18 18 18 19 20 19 18 18 19 19 20 21 21 21 21 21 21 21 21 20 19 18 17 17 16 15 14 14 14 13 12 11 11 11 11 10 10 10
15 16 18 18 18 18 18 17 18 18 19 19 18 17 18 19 20 21 21 21 21 21 21 20 20 19 19 18 17 16 16 15 14 14 13 12 11 11 11 10 10 10 10 10
16 17 18 17 18 18 17 18 18 18 17 16 17 15 18 19 19 19 20 21 21 20 20 20 19 18 18 17 17 16 15 15 14 14 13 12 12 11 11 11 11 10 10 10
16 17 17 17 18 18 18 19 18 18 16 15 16 15 17 19 19 19 19 21 20 20 19 19 18 18 17 16 16 15 15 14 14 13 13 12 12 11 11 11 10 10 10 10
17 18 18 18 18 19 18 18 17 17 15 14 15 15 16 18 19 20 20 20 20 19 19 18 17 17 16 15 15 14 14 13 13 13 12 12 11 11 11 10 10 10 10 10
15 16 18 18 17 17 17 16 14 13 13 13 16 16 17 20 20 20 20 20 20 19 18 17 17 16 15 14 14 13 13 13 12 12 12 12 11 11 11 11 11 10 10 10
13 14 16 17 17 16 16 16 14 13 14 15 16 16 18 20 20 20 20 20 19 18 17 17 16 15 14 14 13 12 12 12 12 12 12 11 11 11 10 10 11 11 11 11
15 15 17 17 17 17 16 15 16 15 15 15 16 17 19 19 19 19 19 19 18 18 17 16 15 14 14 13 12 12 12 12 12 12 11 11 10 10 10 10 10 10 10 10
16 15 16 17 17 17 17 16 15 14 13 13 15 16 17 18 18 18 18 18 18 17 16 15 15 14 13 12 12 11 11 11 11 11 11 11 10 10 10 10 10 10 10 10
15 15 15 16 15 15 15 16 15 14 14 13 14 16 19 18 18 18 18 18 18 17 16 15 15 14 13 12 12 11 11 11 11 11 11 10 10 10 10 10 10 10 10 10
15 15 14 14 15 16 16 16 15 14 14 14 14 16 20 19 18 18 18 18 18 17 16 15 14 14 13 12 12 11 11 11 11 11 11 10 10 10 10 10 10 10 10 10
14 13 12 12 13 14 15 16 16 15 15 14 14 15 18 18 18 18 18 18 18 17 16 15 15 14 13 12 12 11 11 11 11 10 10 10 10 10 10 10 10 10 10 10
14 12 12 12 13 13 13 15 16 15 14 14 14 16 17 18 17 17 18 18 18 17 17 16 15 14 13 13 12 12 11 11 11 10 10 10 10 10 10 10 10 10 10 9
12 12 12 13 15 15 14 14 15 15 15 14 15 16 17 17 17 18 19 19 18 17 17 16 16 15 14 13 12 11 11 11 11 10 10 10 10 10 10 10 10 9 9 9
11 11 12 12 14 15 15 15 15 15 15 15 15 16 18 18 19 19 19 19 18 18 17 17 16 15 14 13 12 12 11 11 10 10 10 10 9 9 9 9 9 9 9 8
9 10 11 11 13 14 13 14 15 15 15 15 15 16 17 17 17 18 18 18 18 17 17 16 16 15 15 14 13 12 11 11 10 10 9 9 9 9 9 9 8 8 8 8
8 9 10 10 11 10 12 15 15 15 16 16 16 16 16 17 18 18 18 18 17 17 16 16 15 15 14 14 13 12 11 10 10 9 9 9 8 8 8 8 8 8 8 7
9 9 9 9 10 11 14 15 15 15 15 16 16 16 16 18 17 17 17 17 17 16 16 15 15 15 14 13 12 11 11 10 9 9 9 8 8 8 8 7 7 7 7 7
10 10 9 9 9 10 13 15 16 15 13 15 15 15 15 15 13 13 16 16 16 15 15 15 14 14 13 12 12 11 10 9 9 9 8 8 7 7 7 7 7 6 6 6
9 9 8 8 9 11 15 15 15 13 13 16 16 16 15 13 14 15 15 15 15 14 14 14 13 13 12 12 11 10 10 9 9 8 7 7 7 6 6 6 6 5 5 5
9 8 8 9 9 10 13 13 13 14 16 17 17 17 16 16 15 15 14 14 14 13 13 13 12 12 11 11 11 10 9 8 8 7 7 6 6 6 5 5 5 5 4 4
9 10 10 10 11 13 13 14 15 17 16 16 16 16 16 15 14 14 13 13 12 12 12 12 12 11 11 10 10 9 8 8 7 6 6 5 5 5 4 4 4 4 4 3
10 11 11 11 12 12 14 15 15 16 16 16 16 16 15 14 14 13 12 12 12 11 11 11 11 11 10 9 9 9 8 7 7 6 5 5 5 4 4 3 3 3 3 3
9 9 10 11 12 12 13 14 15 15 15 15 15 15 15 14 13 13 12 11 11 11 11 10 10 10 9 9 8 8 7 7 6 6 5 4 4 4 3 3 3 3 2 2
8 9 10 10 12 12 12 14 14 14 14 15 14 14 14 14 13 12 12 11 11 11 10 10 9 9 8 8 7 7 6 6 6 5 5 4 3 3 3 2 2 2 1 1

GEFSCGP_850_meantemp_114.txt.gz
Temperature
12 11 11 12 13 13 13 13 13 14 16 15 14 15 16 17 17 17 18 19 20 20 21 21 21 21 20 20 20 19 18 17 16 15 14 13 13 12 12 11 11 11 10 10
10 11 12 13 13 13 13 13 13 14 15 15 14 14 15 15 16 17 18 19 20 20 21 21 21 21 21 20 20 19 19 18 17 16 15 15 14 13 12 11 11 11 10 10
10 12 13 13 13 13 13 13 13 13 15 15 15 14 14 15 16 17 18 19 20 20 20 21 21 21 20 20 20 20 19 18 17 17 15 14 12 12 11 11 11 11 10 10
11 12 13 13 13 13 13 14 14 14 13 12 14 12 13 14 15 15 17 18 19 20 20 20 20 20 20 20 20 20 19 18 18 16 15 14 13 12 12 12 11 11 10 10
11 12 12 12 13 13 13 14 14 14 13 12 12 12 12 13 14 15 16 18 19 20 20 20 20 20 20 20 20 19 19 18 17 16 15 14 14 13 13 12 11 11 10 10
11 12 13 13 14 14 14 14 13 12 12 11 12 12 11 12 14 15 16 17 19 20 20 20 20 20 19 19 19 19 18 17 17 16 15 14 14 13 12 12 11 11 10 10
10 11 12 13 13 13 13 12 12 11 11 10 11 12 12 13 14 15 15 17 19 19 19 19 19 19 19 19 18 18 17 17 16 16 15 14 14 13 13 12 11 11 10 10
9 10 11 12 13 12 13 13 11 11 10 10 11 11 13 14 14 16 17 18 18 19 19 19 19 19 18 18 18 17 17 16 16 15 14 14 13 13 12 12 11 11 11 10
9 10 12 12 13 13 12 12 12 11 10 10 10 11 12 14 14 14 15 16 17 18 18 18 18 18 18 18 17 17 16 15 15 14 14 13 12 12 12 11 11 11 10 10
9 9 11 12 13 13 13 12 12 11 10 10 10 11 12 14 14 14 13 14 17 18 18 18 18 17 17 17 16 16 15 15 14 14 13 12 12 12 11 11 11 10 10 10
9 9 10 11 12 12 12 12 12 11 10 10 10 11 13 14 14 14 13 15 17 18 18 18 17 17 17 16 16 15 15 14 13 13 12 12 11 11 11 10 10 10 10 10
8 9 9 10 12 12 12 12 12 11 9 9 9 11 14 13 14 14 14 16 17 18 18 17 17 17 16 16 16 15 14 13 13 12 12 11 11 10 10 10 10 10 9 9
7 8 8 9 10 11 11 11 12 12 10 9 10 12 14 13 13 14 15 16 17 17 17 17 17 17 17 16 16 15 14 13 12 12 11 11 10 10 10 10 10 9 9 9
7 7 7 8 9 10 10 11 11 11 11 10 10 12 14 14 13 13 14 16 17 17 17 17 17 17 16 16 15 15 14 13 12 11 11 10 10 10 10 10 9 9 9 9
6 6 7 8 9 10 10 11 11 11 12 11 11 12 13 14 13 13 15 16 16 16 17 17 17 17 16 16 15 15 14 13 12 11 11 10 10 10 9 9 9 9 9 9
4 5 6 7 9 10 10 11 12 12 12 11 11 12 13 13 14 14 15 15 15 16 17 17 17 17 16 16 16 15 14 13 12 11 11 10 10 9 9 9 9 9 9 8
4 4 5 6 8 9 9 11 12 12 12 12 12 13 12 13 13 13 15 15 16 17 17 17 17 17 17 16 16 15 14 13 12 11 10 10 9 9 9 8 8 8 8 8
4 4 5 6 7 8 10 11 12 12 12 12 12 13 13 14 15 17 17 17 17 17 17 17 17 17 17 16 15 15 13 12 11 11 10 10 9 9 8 8 8 8 8 7
4 4 5 6 6 7 9 10 11 11 12 12 12 12 13 15 14 15 17 17 18 18 18 18 17 17 16 16 15 14 13 12 11 11 10 9 9 8 8 8 8 7 7 7
4 4 5 5 6 7 10 10 11 12 11 12 12 12 12 12 12 13 16 17 17 17 17 17 16 16 16 15 14 14 13 12 11 11 10 9 8 8 8 7 7 7 7 6
4 4 4 5 6 7 9 10 11 10 11 12 12 13 12 12 14 16 16 17 17 17 16 16 16 15 15 14 14 13 13 12 11 10 9 8 8 7 7 7 6 6 6 5
4 4 5 5 5 7 9 9 10 10 12 13 13 13 13 14 15 15 16 16 16 16 15 15 15 15 14 14 13 13 12 11 10 9 9 8 7 7 6 6 6 5 5 5
4 5 5 5 7 8 8 9 11 12 12 13 13 13 13 13 13 14 15 15 15 15 15 14 14 14 13 13 12 12 11 10 9 9 8 7 7 6 6 5 5 5 4 4
4 4 4 5 6 7 8 9 10 11 12 13 13 14 13 13 13 14 14 14 14 14 14 14 13 13 12 12 11 11 10 10 9 8 7 7 6 6 5 5 4 4 4 3
3 3 4 5 6 6 8 9 10 11 11 12 13 13 13 13 13 13 13 13 13 13 13 13 13 12 12 11 10 10 9 9 8 7 7 6 5 5 4 4 4 3 3 3
3 3 4 5 6 6 7 8 9 10 11 11 12 12 12 13 13 13 13 13 12 12 12 12 12 11 11 10 9 9 8 8 7 7 6 5 5 4 4 3 3 2 2 2

GEFSCGP_850_meantemp_120.txt.gz
Temperature
9 9 9 10 11 11 11 11 11 12 13 13 12 13 14 14 14 14 15 16 18 19 20 20 20 19 19 19 19 18 18 18 17 15 15 14 14 14 13 13 12 12 11 11
8 9 10 11 11 11 11 11 11 12 13 13 12 12 13 13 13 15 15 16 18 19 19 20 20 19 19 19 19 19 19 18 17 17 17 16 15 14 13 13 12 12 11 11
8 9 11 11 10 11 11 11 11 12 12 13 13 12 12 13 13 15 16 17 18 19 19 20 20 20 20 19 19 19 19 19 18 18 16 15 13 12 12 12 12 12 11 11
8 10 10 10 10 11 11 11 11 12 12 11 12 10 11 12 13 13 14 16 17 19 19 20 20 20 20 20 20 19 19 19 19 18 17 16 14 14 14 14 13 12 12 11
8 9 9 10 10 11 11 11 11 11 11 10 11 10 10 11 12 13 13 16 18 19 19 20 20 20 20 20 20 20 19 19 19 18 17 17 16 16 15 14 13 12 11 11
8 9 9 10 11 11 11 11 11 10 10 10 10 10 10 10 12 13 14 16 18 19 19 19 19 20 20 20 20 20 19 19 19 18 17 17 17 16 15 14 13 12 12 11
7 8 9 10 10 10 11 10 9 9 9 9 10 10 11 11 12 13 14 16 18 18 19 19 19 19 19 20 19 19 19 19 19 18 17 17 17 16 15 15 14 13 12 11
6 7 8 9 10 9 10 10 9 10 9 9 9 10 11 12 12 13 15 16 17 18 18 19 19 19 19 19 19 19 19 19 18 18 17 16 16 15 15 14 14 13 13 12
6 7 9 9 10 10 9 10 10 10 9 9 8 9 9 11 11 11 12 14 15 17 18 18 19 19 19 19 19 19 18 18 18 17 16 16 15 15 14 14 13 13 12 12
5 6 7 9 9 10 10 10 9 9 9 9 9 8 10 12 12 12 12 12 15 17 18 18 18 18 18 18 18 18 18 17 17 16 16 15 15 14 14 13 13 12 12 11
4 5 6 8 9 9 9 9 9 9 9 9 9 10 11 12 13 13 13 14 16 17 18 18 18 18 18 18 18 17 17 17 16 16 15 15 14 13 13 12 12 12 11 11
4 4 5 7 8 9 9 9 9 9 8 8 9 10 12 12 12 13 13 15 16 17 17 17 17 17 17 17 17 17 16 16 16 15 15 14 13 12 12 12 11 11 11 10
4 4 5 6 7 7 8 8 8 8 7 7 8 11 12 11 11 12 13 14 15 16 17 17 17 17 17 17 16 16 16 16 15 15 14 13 12 12 11 11 11 10 10 10
4 3 4 5 5 5 6 7 8 8 8 8 9 11 13 12 12 12 12 14 15 16 16 17 17 17 17 17 16 16 16 15 15 14 13 12 12 11 11 11 10 10 10 9
3 3 3 4 5 6 6 7 7 8 9 9 9 10 12 12 12 12 13 13 14 15 16 17 17 17 17 16 16 16 15 15 14 14 13 12 12 11 11 10 10 10 9 9
2 2 3 4 5 6 6 7 8 8 9 9 9 10 11 12 12 11 12 13 13 15 16 17 17 17 17 17 16 16 15 15 14 13 13 12 11 11 10 10 9 9 9 9
1 2 2 3 5 5 6 7 8 9 9 10 10 11 10 11 11 11 13 13 15 16 17 17 17 17 17 17 17 16 15 15 14 13 12 11 11 10 10 9 9 9 9 8
1 1 2 3 4 5 7 8 8 9 9 10 10 10 11 11 13 14 15 15 16 16 17 17 17 17 17 17 16 16 15 14 14 13 12 11 10 10 9 9 8 8 8 8
2 2 2 2 3 5 6 7 7 8 8 8 9 9 9 11 12 13 15 15 16 16 17 17 17 17 17 17 16 15 15 14 13 12 12 11 10 9 9 8 8 8 8 8
2 2 2 3 4 5 6 7 7 8 8 8 8 8 8 8 10 11 14 14 15 16 16 17 17 17 17 16 16 15 15 14 13 12 11 11 10 9 9 8 8 8 7 7
1 1 2 2 3 5 6 6 7 7 7 7 8 8 8 8 10 11 13 14 15 15 16 16 16 16 16 16 16 15 15 14 13 12 11 10 9 9 8 8 7 7 7 6
2 1 2 2 3 4 5 5 6 5 6 7 7 8 8 9 10 11 12 13 14 15 15 15 16 16 16 16 15 15 14 13 12 11 10 10 9 8 8 7 7 7 6 6
2 2 2 3 4 5 5 5 5 6 6 6 7 8 8 8 9 10 11 12 13 14 14 15 15 15 15 15 15 15 14 13 12 11 10 9 8 8 7 7 7 6 6 5
1 2 2 2 3 4 5 5 5 5 5 6 6 7 8 8 8 9 10 11 12 13 14 14 14 15 14 14 14 14 13 12 11 10 9 8 8 7 7 6 6 6 5 5
1 1 1 2 3 3 5 5 5 5 5 6 6 7 7 8 8 9 9 10 11 12 13 13 14 14 14 13 13 12 12 11 11 10 9 8 7 7 6 6 5 5 5 4
0 1 1 2 3 3 4 5 5 5 5 5 6 6 7 8 8 8 9 10 11 11 12 12 13 13 13 12 12 11 11 11 10 9 8 7 7 6 6 5 5 4 4 3

GEFSCGP_850_meantemp_126.txt.gz
Temperature
8 8 9 10 11 12 13 14 14 16 17 16 16 17 18 19 18 19 19 20 19 19 19 19 18 17 17 16 16 16 16 16 15 14 14 13 13 13 13 12 12 12 11 11
8 8 10 12 12 12 12 12 13 15 16 15 16 16 18 19 19 18 19 19 19 19 19 18 18 17 17 17 17 17 17 16 16 16 16 16 14 13 12 12 12 12 12 11
7 9 11 10 11 10 11 11 13 14 14 14 15 15 17 18 18 18 18 19 19 19 19 19 18 17 17 17 17 17 17 17 17 16 15 14 13 12 12 12 12 12 12 11
8 9 10 10 10 10 10 12 12 13 13 13 14 14 17 18 18 18 18 18 19 19 19 19 18 18 17 18 18 18 18 17 17 16 15 14 14 14 15 14 13 12 12 11
7 9 9 9 10 11 11 12 12 12 12 12 13 13 16 18 17 18 19 18 18 19 18 18 18 18 18 19 18 18 18 17 17 16 16 15 15 15 14 13 12 12 12 11
7 8 9 9 10 11 11 11 10 11 10 10 12 13 15 17 18 19 19 19 19 18 18 18 18 18 18 18 18 18 18 17 17 16 16 16 16 15 13 13 12 12 12 11
7 8 9 9 8 9 10 9 9 9 9 11 14 13 15 18 18 19 19 19 19 18 18 18 18 18 18 18 18 18 18 18 17 17 16 16 16 15 14 14 13 13 12 12
6 7 8 8 8 8 9 9 10 10 11 13 14 13 16 18 18 18 18 18 18 18 18 18 18 18 18 18 18 18 18 18 18 17 17 16 16 14 14 14 13 13 13 13
5 6 8 8 9 9 8 9 10 11 12 12 13 15 16 16 17 17 17 17 17 17 17 17 17 17 18 18 18 18 18 18 18 17 17 16 15 15 15 14 13 13 13 12
4 5 7 8 8 9 9 9 9 9 10 11 13 14 16 16 16 17 17 17 17 17 16 16 17 17 17 18 18 18 18 18 18 17 17 16 16 15 14 14 13 13 12 12
4 4 6 7 7 8 8 8 8 8 10 12 13 15 17 18 17 17 17 17 17 17 16 16 16 17 17 17 17 17 17 17 17 17 16 16 15 14 14 13 13 12 12 12
4 4 5 6 7 7 8 8 7 8 9 11 13 16 16 16 17 17 17 17 16 16 15 15 16 16 16 17 16 17 17 17 17 17 16 16 15 14 13 13 13 12 12 11
3 3 4 6 6 5 6 7 7 8 10 11 13 15 16 15 15 15 16 16 15 14 14 14 15 15 16 16 16 16 16 16 16 16 16 15 15 14 14 13 12 12 11 11
4 3 4 5 5 5 5 6 7 7 8 10 12 14 15 15 15 15 15 14 14 14 14 14 14 14 15 16 16 16 16 16 16 15 15 15 14 14 13 12 12 11 11 11
3 3 4 4 5 5 6 6 6 7 9 10 12 13 15 15 15 15 14 13 13 13 13 13 14 14 15 15 15 15 15 15 15 15 15 14 14 13 12 12 11 11 11 10
2 2 3 4 5 6 6 6 7 7 9 10 12 13 14 15 14 14 13 13 12 12 12 13 13 14 15 15 15 15 15 15 15 15 14 14 13 12 12 12 11 10 10 10
1 1 2 4 5 5 6 7 7 8 9 10 10 12 12 13 13 13 13 12 13 12 12 12 13 14 15 15 15 15 15 15 14 14 14 13 12 12 11 11 11 10 10 10
1 1 2 3 4 4 8 8 8 8 8 9 9 10 11 11 12 12 12 12 12 12 12 13 13 14 14 15 15 15 15 14 14 14 13 13 12 12 11 11 10 10 10 9
2 1 2 3 4 5 7 7 7 7 7 7 8 9 10 10 12 12 11 11 12 12 13 13 13 14 14 14 15 15 14 14 14 13 13 12 12 11 11 10 10 10 9 9
2 2 2 2 3 5 6 6 6 7 6 6 6 7 7 9 11 12 10 10 11 12 12 13 13 14 14 14 14 14 14 14 14 14 13 12 12 11 11 10 10 9 9 8
1 1 1 2 3 5 6 6 6 6 5 5 5 6 6 7 8 8 8 9 10 11 12 13 13 14 14 14 14 14 14 14 14 13 13 12 11 10 10 9 9 9 8 8
2 2 2 2 3 4 5 5 5 5 5 5 5 5 5 5 6 7 7 8 9 10 11 12 13 13 14 14 14 14 14 14 13 13 12 11 10 10 9 9 8 8 8 7
3 3 3 3 4 5 5 5 5 5 5 4 4 4 5 5 5 5 6 7 8 9 10 11 12 13 13 14 14 14 14 13 13 12 11 10 10 9 9 8 8 7 7 7
3 3 3 3 4 5 5 4 4 4 4 4 4 4 4 4 5 5 5 6 7 9 9 11 11 12 13 13 13 13 13 13 12 11 10 10 9 8 8 7 7 7 6 6
3 3 2 3 4 4 5 4 4 4 4 4 4 4 4 4 4 5 5 6 7 8 9 10 11 12 12 12 12 13 13 12 11 11 10 9 8 8 7 7 6 6 6 6
3 2 2 3 4 4 4 4 4 4 3 3 3 3 4 4 4 4 5 5 6 7 8 9 10 11 11 12 12 12 12 12 11 10 9 9 8 7 7 6 6 5 5 5

GEFSCGP_850_meantemp_132.txt.gz
Temperature
8 7 7 8 9 10 10 11 11 13 15 15 14 15 16 17 18 18 19 20 20 20 20 20 20 19 19 18 17 16 15 15 14 14 13 13 13 13 12 12 12 12 12 11
7 6 8 10 10 10 10 10 10 12 14 14 14 14 16 17 17 18 19 20 20 20 20 20 20 20 19 18 17 16 16 15 15 15 15 14 14 13 13 12 12 12 12 11
7 8 9 9 9 9 9 9 10 11 12 13 13 13 14 16 17 18 19 19 20 20 21 21 20 20 19 18 18 17 16 16 15 15 14 13 12 12 12 12 12 12 12 12
7 9 9 9 9 9 8 10 10 11 10 10 11 11 13 15 16 17 18 19 19 20 21 21 20 20 19 19 18 17 16 16 15 15 14 13 13 13 14 14 13 13 12 12
7 8 8 8 9 10 9 11 10 10 9 9 10 10 12 15 15 17 17 18 19 20 20 20 20 20 19 19 18 18 17 16 15 15 14 14 14 15 14 14 13 13 12 12
7 9 8 9 9 9 10 10 10 9 8 8 9 10 11 14 16 17 18 18 19 19 20 20 20 20 20 19 18 18 17 16 15 14 14 14 15 14 14 13 13 13 12 12
6 7 8 8 8 8 9 7 7 7 7 8 10 11 11 15 17 17 18 18 19 19 19 19 20 20 19 19 18 18 17 16 15 14 14 14 15 15 14 15 14 13 12 12
4 6 8 8 8 7 8 7 7 7 8 9 11 11 13 15 16 17 18 19 19 19 19 19 19 19 19 19 18 18 17 16 15 15 14 14 14 14 14 14 14 14 14 14
4 5 7 8 9 8 7 7 8 8 8 8 10 12 14 15 15 16 17 18 18 19 19 19 19 19 19 18 18 18 17 16 16 15 15 14 14 14 14 14 13 13 14 13
3 4 6 7 8 8 7 7 7 6 7 8 10 11 13 14 14 15 16 16 17 18 18 18 18 18 18 18 18 17 17 17 16 15 15 14 14 14 14 13 13 13 13 13
3 3 4 6 6 6 7 7 6 6 7 8 9 12 15 15 15 15 15 16 17 18 18 18 18 18 18 18 17 17 16 16 16 15 15 14 14 14 13 13 13 12 12 12
3 3 3 5 6 6 6 6 6 6 6 8 9 11 15 14 15 15 15 16 17 17 17 17 17 17 17 17 17 16 16 16 15 15 15 14 14 13 13 13 12 12 12 12
3 2 2 4 5 5 5 5 5 5 6 7 8 11 14 13 14 14 15 16 16 16 16 16 16 16 16 16 16 16 15 15 15 15 15 14 14 13 13 13 12 12 12 11
4 2 2 2 3 3 4 5 5 5 5 6 8 10 11 12 12 13 14 14 15 15 15 15 15 15 15 15 15 15 15 15 15 15 15 14 14 13 13 13 12 12 12 11
3 2 2 3 4 5 5 5 5 5 6 6 8 9 10 11 11 12 12 13 13 13 13 14 14 14 14 14 14 14 14 14 14 14 14 14 14 13 13 12 12 12 11 11
2 1 2 3 5 5 5 6 6 6 6 7 7 8 10 11 11 11 11 12 12 12 12 12 13 13 13 13 13 14 14 14 14 14 14 13 13 13 12 12 12 11 11 10
1 1 1 2 4 4 4 5 6 6 6 6 7 7 8 9 9 10 10 10 10 10 11 11 12 12 13 13 13 14 14 14 13 13 13 13 13 13 12 12 11 11 10 10
1 1 1 1 2 2 4 6 6 6 6 6 6 7 7 8 9 9 9 9 9 9 10 10 11 11 12 12 13 13 13 13 13 13 13 13 13 12 12 11 11 11 10 10
3 1 1 1 1 3 5 5 5 5 5 5 5 6 6 7 9 9 8 8 8 9 9 10 11 11 11 12 12 13 12 12 12 12 12 12 12 12 11 11 10 10 10 10
3 2 1 1 1 3 4 5 5 5 4 4 5 5 5 6 6 7 7 7 8 8 9 10 10 11 11 11 12 12 12 12 12 12 12 12 12 12 11 11 10 10 10 9
1 1 0 0 1 3 4 5 5 4 3 4 4 4 4 4 5 5 6 6 7 8 8 9 10 10 11 11 11 11 11 11 12 12 12 12 11 11 11 10 10 9 9 9
1 0 0 1 1 2 4 4 3 3 4 4 4 4 4 5 5 5 5 6 7 7 8 9 9 10 10 10 11 11 11 11 11 11 11 11 11 10 10 10 9 9 9 9
2 2 1 1 2 4 5 4 4 4 4 4 4 4 4 4 4 4 5 5 6 6 7 8 9 9 10 10 10 11 11 11 11 11 11 10 10 10 10 9 9 9 8 8
3 3 3 2 3 4 5 5 4 4 4 4 4 4 4 4 4 4 4 5 5 6 7 7 8 8 9 9 10 10 11 11 11 10 10 10 10 9 9 9 9 9 8 8
2 2 2 2 3 4 4 5 4 4 4 4 4 4 4 4 4 4 4 4 5 5 6 7 7 8 8 9 9 9 10 10 10 10 9 9 9 9 8 8 8 8 8 8
2 2 1 1 3 3 3 4 4 4 4 3 3 3 3 3 3 3 4 4 5 5 6 6 7 8 8 8 9 9 9 10 10 9 9 9 8 8 8 8 7 6 7 7